| time (UTC) | temp C | wind direction | speed KPH | gust KPH | rain 1hr cm | rain 24hr cm | rain mn cm | humidity % | barometer mb |
| 20260506235503 | 11 | 259 | 4.8 | 11.3 | 0.00 | 0.00 | 0.00 | 43 | 1012.0 |
| 20260506235339 | 11 | 250 | 4.8 | 11.3 | 0.00 | 0.00 | 0.00 | 44 | 1012.0 |
| 20260506235217 | 11 | 271 | 3.2 | 11.3 | 0.00 | 0.00 | 0.00 | 43 | 1012.1 |
| 20260506235038 | 11 | 287 | 4.8 | 11.3 | 0.00 | 0.00 | 0.00 | 43 | 1012.0 |
| 20260506234915 | 11 | 263 | 4.8 | 11.3 | 0.00 | 0.00 | 0.00 | 43 | 1012.1 |
| 20260506234753 | 11 | 304 | 6.4 | 11.3 | 0.00 | 0.00 | 0.00 | 43 | 1012.0 |
| 20260506234631 | 11 | 286 | 6.4 | 11.3 | 0.00 | 0.00 | 0.00 | 43 | 1012.0 |
| 20260506234509 | 11 | 261 | 8.0 | 11.3 | 0.00 | 0.00 | 0.00 | 43 | 1012.0 |
| 20260506234347 | 11 | 277 | 8.0 | 14.5 | 0.00 | 0.00 | 0.00 | 43 | 1012.0 |
| 20260506234225 | 11 | 319 | 8.0 | 14.5 | 0.00 | 0.00 | 0.00 | 43 | 1011.9 |
| 20260506234105 | 11 | 261 | 6.4 | 14.5 | 0.00 | 0.00 | 0.00 | 44 | 1011.9 |
| 20260506233942 | 11 | 273 | 8.0 | 16.1 | 0.00 | 0.00 | 0.00 | 44 | 1011.9 |
| 20260506233823 | 11 | 304 | 8.0 | 16.1 | 0.00 | 0.00 | 0.00 | 44 | 1011.9 |
| 20260506233703 | 11 | 317 | 9.7 | 16.1 | 0.00 | 0.00 | 0.00 | 44 | 1011.9 |
| 20260506233520 | 11 | 289 | 11.3 | 16.1 | 0.00 | 0.00 | 0.00 | 43 | 1012.0 |
| 20260506233400 | 11 | 239 | 9.7 | 16.1 | 0.00 | 0.00 | 0.00 | 43 | 1011.9 |
| 20260506233218 | 11 | 259 | 6.4 | 14.5 | 0.00 | 0.00 | 0.00 | 44 | 1011.9 |
| 20260506233035 | 11 | 275 | 6.4 | 14.5 | 0.00 | 0.00 | 0.00 | 43 | 1011.9 |
| 20260506232912 | 11 | 284 | 8.0 | 14.5 | 0.00 | 0.00 | 0.00 | 44 | 1011.9 |
| 20260506232750 | 11 | 258 | 8.0 | 14.5 | 0.00 | 0.00 | 0.00 | 43 | 1011.9 |
| 20260506232631 | 11 | 292 | 6.4 | 14.5 | 0.00 | 0.00 | 0.00 | 43 | 1011.9 |
| 20260506232508 | 11 | 277 | 6.4 | 12.9 | 0.00 | 0.00 | 0.00 | 43 | 1011.9 |
| 20260506232346 | 11 | 322 | 4.8 | 12.9 | 0.00 | 0.00 | 0.00 | 44 | 1011.9 |
| 20260506232226 | 11 | 300 | 3.2 | 16.1 | 0.00 | 0.00 | 0.00 | 43 | 1011.9 |
| 20260506232106 | 11 | 299 | 4.8 | 16.1 | 0.00 | 0.00 | 0.00 | 43 | 1011.9 |
| 20260506231949 | 11 | 297 | 6.4 | 16.1 | 0.00 | 0.00 | 0.00 | 43 | 1011.9 |
| 20260506231829 | 11 | 266 | 4.8 | 16.1 | 0.00 | 0.00 | 0.00 | 43 | 1011.9 |
| 20260506231647 | 11 | 259 | 6.4 | 16.1 | 0.00 | 0.00 | 0.00 | 43 | 1011.9 |
| 20260506231525 | 11 | 263 | 8.0 | 17.7 | 0.00 | 0.00 | 0.00 | 43 | 1011.9 |
| 20260506231407 | 11 | 271 | 8.0 | 20.9 | 0.00 | 0.00 | 0.00 | 43 | 1011.9 |
| 20260506231247 | 11 | 286 | 8.0 | 20.9 | 0.00 | 0.00 | 0.00 | 44 | 1011.9 |
| 20260506231124 | 11 | 273 | 11.3 | 20.9 | 0.00 | 0.00 | 0.00 | 43 | 1011.9 |
| 20260506230941 | 11 | 284 | 8.0 | 20.9 | 0.00 | 0.00 | 0.00 | 44 | 1011.8 |
| 20260506230823 | 11 | 324 | 11.3 | 20.9 | 0.00 | 0.00 | 0.00 | 43 | 1011.8 |
| 20260506230701 | 11 | 302 | 9.7 | 20.9 | 0.00 | 0.00 | 0.00 | 44 | 1011.8 |
| 20260506230541 | 11 | 315 | 4.8 | 16.1 | 0.00 | 0.00 | 0.00 | 44 | 1011.9 |
| 20260506230419 | 11 | 290 | 8.0 | 16.1 | 0.00 | 0.00 | 0.00 | 44 | 1011.9 |
| 20260506230234 | 11 | 283 | 12.9 | 16.1 | 0.00 | 0.00 | 0.00 | 43 | 1011.8 |
| 20260506230054 | 11 | 283 | 11.3 | 16.1 | 0.00 | 0.00 | 0.00 | 44 | 1011.8 |
| 20260506225930 | 11 | 277 | 8.0 | 16.1 | 0.00 | 0.00 | 0.00 | 44 | 1011.8 |
| 20260506225807 | 11 | 304 | 6.4 | 16.1 | 0.00 | 0.00 | 0.00 | 44 | 1011.8 |
| 20260506225646 | 11 | 294 | 9.7 | 16.1 | 0.00 | 0.00 | 0.00 | 43 | 1011.8 |
| 20260506225528 | 11 | 302 | 11.3 | 16.1 | 0.00 | 0.00 | 0.00 | 43 | 1011.9 |
| 20260506225348 | 11 | 284 | 8.0 | 16.1 | 0.00 | 0.00 | 0.00 | 45 | 1011.9 |
| 20260506225225 | 11 | 328 | 3.2 | 9.7 | 0.00 | 0.00 | 0.00 | 46 | 1011.9 |
| 20260506225107 | 11 | 268 | 4.8 | 8.0 | 0.00 | 0.00 | 0.00 | 44 | 1011.8 |
| 20260506224948 | 11 | 243 | 3.2 | 8.0 | 0.00 | 0.00 | 0.00 | 44 | 1011.8 |
| 20260506224825 | 11 | 261 | 3.2 | 8.0 | 0.00 | 0.00 | 0.00 | 44 | 1011.9 |
| 20260506224703 | 11 | 281 | 3.2 | 8.0 | 0.00 | 0.00 | 0.00 | 44 | 1011.8 |
| 20260506224520 | 11 | 267 | 1.6 | 8.0 | 0.00 | 0.00 | 0.00 | 45 | 1011.8 |
| 20260506224401 | 11 | 259 | 3.2 | 8.0 | 0.00 | 0.00 | 0.00 | 44 | 1011.8 |
| 20260506224222 | 11 | 324 | 1.6 | 8.0 | 0.00 | 0.00 | 0.00 | 44 | 1011.8 |
| 20260506224101 | 11 | 322 | 3.2 | 9.7 | 0.00 | 0.00 | 0.00 | 45 | 1011.8 |
| 20260506223939 | 11 | 300 | 1.6 | 11.3 | 0.00 | 0.00 | 0.00 | 44 | 1011.7 |
| 20260506223816 | 11 | 284 | 3.2 | 12.9 | 0.00 | 0.00 | 0.00 | 44 | 1011.7 |
| 20260506223620 | 11 | 290 | 4.8 | 12.9 | 0.00 | 0.00 | 0.00 | 44 | 1011.7 |
| 20260506223440 | 11 | 299 | 4.8 | 12.9 | 0.00 | 0.00 | 0.00 | 44 | 1011.8 |
| 20260506223320 | 11 | 286 | 6.4 | 12.9 | 0.00 | 0.00 | 0.00 | 43 | 1011.8 |
| 20260506223159 | 11 | 291 | 8.0 | 14.5 | 0.00 | 0.00 | 0.00 | 43 | 1011.8 |
| 20260506223025 | 11 | 281 | 9.7 | 14.5 | 0.00 | 0.00 | 0.00 | 43 | 1011.9 |
| 20260506222905 | 11 | 276 | 9.7 | 14.5 | 0.00 | 0.00 | 0.00 | 43 | 1011.9 |
| 20260506222742 | 11 | 292 | 8.0 | 14.5 | 0.00 | 0.00 | 0.00 | 43 | 1011.9 |
| 20260506222559 | 11 | 284 | 6.4 | 14.5 | 0.00 | 0.00 | 0.00 | 44 | 1011.9 |
| 20260506222423 | 11 | 286 | 4.8 | 14.5 | 0.00 | 0.00 | 0.00 | 44 | 1011.9 |
| 20260506222239 | 11 | 292 | 4.8 | 17.7 | 0.00 | 0.00 | 0.00 | 44 | 1011.9 |
| 20260506222118 | 11 | 290 | 3.2 | 19.3 | 0.00 | 0.00 | 0.00 | 44 | 1011.9 |
| 20260506222000 | 11 | 308 | 4.8 | 19.3 | 0.00 | 0.00 | 0.00 | 43 | 1011.9 |
| 20260506221843 | 11 | 306 | 6.4 | 19.3 | 0.00 | 0.00 | 0.00 | 43 | 1011.9 |
| 20260506221702 | 11 | 305 | 8.0 | 19.3 | 0.00 | 0.00 | 0.00 | 43 | 1011.9 |
| 20260506221538 | 11 | 273 | 11.3 | 19.3 | 0.00 | 0.00 | 0.00 | 43 | 1011.9 |
| 20260506221416 | 11 | 292 | 12.9 | 24.1 | 0.00 | 0.00 | 0.00 | 43 | 1012.0 |
| 20260506221259 | 11 | 310 | 12.9 | 24.1 | 0.00 | 0.00 | 0.00 | 43 | 1012.0 |
| 20260506221139 | 11 | 283 | 11.3 | 24.1 | 0.00 | 0.00 | 0.00 | 43 | 1012.0 |
| 20260506221015 | 11 | 298 | 11.3 | 24.1 | 0.00 | 0.00 | 0.00 | 43 | 1012.0 |
| 20260506220855 | 11 | 322 | 11.3 | 24.1 | 0.00 | 0.00 | 0.00 | 43 | 1012.0 |
| 20260506220733 | 11 | 325 | 12.9 | 24.1 | 0.00 | 0.00 | 0.00 | 44 | 1011.9 |
| 20260506220555 | 11 | 314 | 8.0 | 17.7 | 0.00 | 0.00 | 0.00 | 44 | 1012.0 |
| 20260506220432 | 11 | 309 | 8.0 | 11.3 | 0.00 | 0.00 | 0.00 | 44 | 1012.0 |
| 20260506220251 | 11 | 272 | 8.0 | 11.3 | 0.00 | 0.00 | 0.00 | 44 | 1011.9 |
| 20260506220130 | 11 | 277 | 1.6 | 11.3 | 0.00 | 0.00 | 0.00 | 45 | 1011.9 |
| 20260506215950 | 11 | 240 | 1.6 | 12.9 | 0.00 | 0.00 | 0.00 | 46 | 1011.9 |
| 20260506215830 | 11 | 355 | 0.0 | 12.9 | 0.00 | 0.00 | 0.00 | 46 | 1011.9 |
| 20260506215709 | 11 | 360 | 1.6 | 12.9 | 0.00 | 0.00 | 0.00 | 44 | 1011.9 |
| 20260506215547 | 11 | 331 | 6.4 | 12.9 | 0.00 | 0.00 | 0.00 | 44 | 1011.9 |
| 20260506215411 | 11 | 313 | 4.8 | 12.9 | 0.00 | 0.00 | 0.00 | 45 | 1011.8 |
| 20260506215250 | 11 | 317 | 6.4 | 12.9 | 0.00 | 0.00 | 0.00 | 44 | 1011.9 |
| 20260506215127 | 11 | 302 | 4.8 | 12.9 | 0.00 | 0.00 | 0.00 | 45 | 1011.9 |
| 20260506214945 | 11 | 267 | 4.8 | 12.9 | 0.00 | 0.00 | 0.00 | 44 | 1011.8 |
| 20260506214806 | 11 | 292 | 6.4 | 14.5 | 0.00 | 0.00 | 0.00 | 44 | 1011.9 |
| 20260506214645 | 11 | 257 | 8.0 | 14.5 | 0.00 | 0.00 | 0.00 | 44 | 1011.8 |
| 20260506214520 | 11 | 235 | 6.4 | 14.5 | 0.00 | 0.00 | 0.00 | 46 | 1011.8 |
| 20260506214358 | 11 | 257 | 4.8 | 14.5 | 0.00 | 0.00 | 0.00 | 47 | 1011.9 |
| 20260506214239 | 11 | 309 | 6.4 | 14.5 | 0.00 | 0.00 | 0.00 | 46 | 1011.9 |
| 20260506214119 | 11 | 305 | 9.7 | 14.5 | 0.00 | 0.00 | 0.00 | 45 | 1011.8 |
| 20260506213957 | 11 | 284 | 6.4 | 14.5 | 0.00 | 0.00 | 0.00 | 46 | 1011.8 |
| 20260506213834 | 11 | 286 | 6.4 | 14.5 | 0.00 | 0.00 | 0.00 | 46 | 1011.8 |
| 20260506213714 | 11 | 275 | 8.0 | 14.5 | 0.00 | 0.00 | 0.00 | 46 | 1011.8 |
| 20260506213556 | 11 | 309 | 8.0 | 19.3 | 0.00 | 0.00 | 0.00 | 46 | 1011.8 |
| 20260506213433 | 11 | 289 | 9.7 | 19.3 | 0.00 | 0.00 | 0.00 | 46 | 1011.8 |
| 20260506213314 | 11 | 292 | 9.7 | 19.3 | 0.00 | 0.00 | 0.00 | 46 | 1011.8 |
| 20260506213153 | 11 | 298 | 3.2 | 19.3 | 0.00 | 0.00 | 0.00 | 47 | 1011.8 |
| 20260506213034 | 11 | 330 | 3.2 | 19.3 | 0.00 | 0.00 | 0.00 | 46 | 1011.9 |
| 20260506212912 | 11 | 304 | 8.0 | 19.3 | 0.00 | 0.00 | 0.00 | 45 | 1011.8 |
| 20260506212750 | 11 | 296 | 11.3 | 19.3 | 0.00 | 0.00 | 0.00 | 45 | 1011.9 |
| 20260506212627 | 11 | 293 | 12.9 | 17.7 | 0.00 | 0.00 | 0.00 | 45 | 1011.8 |
| 20260506212446 | 11 | 289 | 9.7 | 17.7 | 0.00 | 0.00 | 0.00 | 46 | 1011.8 |
| 20260506212307 | 11 | 311 | 6.4 | 14.5 | 0.00 | 0.00 | 0.00 | 46 | 1011.8 |
| 20260506212143 | 11 | 299 | 9.7 | 16.1 | 0.00 | 0.00 | 0.00 | 46 | 1011.8 |
| 20260506212000 | 11 | 296 | 9.7 | 16.1 | 0.00 | 0.00 | 0.00 | 47 | 1011.9 |
| 20260506211837 | 11 | 282 | 6.4 | 16.1 | 0.00 | 0.00 | 0.00 | 47 | 1011.8 |
| 20260506211701 | 11 | 281 | 8.0 | 17.7 | 0.00 | 0.00 | 0.00 | 46 | 1011.8 |
| 20260506211538 | 11 | 274 | 8.0 | 17.7 | 0.00 | 0.00 | 0.00 | 46 | 1011.8 |
| 20260506211415 | 11 | 289 | 11.3 | 17.7 | 0.00 | 0.00 | 0.00 | 46 | 1011.9 |
| 20260506211256 | 11 | 298 | 9.7 | 17.7 | 0.00 | 0.00 | 0.00 | 46 | 1011.9 |
| 20260506211137 | 11 | 288 | 9.7 | 17.7 | 0.00 | 0.00 | 0.00 | 45 | 1011.9 |
| 20260506210957 | 11 | 273 | 14.5 | 17.7 | 0.00 | 0.00 | 0.00 | 45 | 1011.9 |
| 20260506210836 | 11 | 295 | 11.3 | 17.7 | 0.00 | 0.00 | 0.00 | 47 | 1011.9 |
| 20260506210714 | 11 | 255 | 11.3 | 17.7 | 0.00 | 0.00 | 0.00 | 46 | 1011.9 |
| 20260506210538 | 11 | 245 | 9.7 | 17.7 | 0.00 | 0.00 | 0.00 | 46 | 1011.8 |
| 20260506210415 | 11 | 291 | 8.0 | 17.7 | 0.00 | 0.00 | 0.00 | 46 | 1011.9 |
| 20260506210254 | 11 | 300 | 8.0 | 17.7 | 0.00 | 0.00 | 0.00 | 46 | 1011.9 |
| 20260506210132 | 11 | 293 | 12.9 | 17.7 | 0.00 | 0.00 | 0.00 | 45 | 1011.9 |
| 20260506205952 | 11 | 284 | 12.9 | 17.7 | 0.00 | 0.00 | 0.00 | 46 | 1011.9 |
| 20260506205831 | 11 | 283 | 11.3 | 17.7 | 0.00 | 0.00 | 0.00 | 46 | 1011.9 |
| 20260506205710 | 11 | 236 | 8.0 | 16.1 | 0.00 | 0.00 | 0.00 | 46 | 1011.9 |
| 20260506205549 | 11 | 268 | 9.7 | 16.1 | 0.00 | 0.00 | 0.00 | 46 | 1011.9 |
| 20260506205428 | 11 | 294 | 9.7 | 16.1 | 0.00 | 0.00 | 0.00 | 45 | 1011.9 |
| 20260506205310 | 11 | 290 | 8.0 | 19.3 | 0.00 | 0.00 | 0.00 | 47 | 1011.9 |
| 20260506205148 | 11 | 291 | 9.7 | 19.3 | 0.00 | 0.00 | 0.00 | 45 | 1011.9 |
| 20260506205025 | 11 | 301 | 9.7 | 19.3 | 0.00 | 0.00 | 0.00 | 46 | 1011.9 |
| 20260506204904 | 11 | 281 | 8.0 | 19.3 | 0.00 | 0.00 | 0.00 | 46 | 1011.9 |
| 20260506204728 | 11 | 317 | 8.0 | 19.3 | 0.00 | 0.00 | 0.00 | 45 | 1011.9 |
| 20260506204606 | 11 | 327 | 11.3 | 19.3 | 0.00 | 0.00 | 0.00 | 45 | 1011.9 |
| 20260506204443 | 11 | 332 | 4.8 | 14.5 | 0.00 | 0.00 | 0.00 | 47 | 1011.9 |
| 20260506204321 | 11 | 265 | 6.4 | 14.5 | 0.00 | 0.00 | 0.00 | 47 | 1012.0 |
| 20260506204203 | 11 | 253 | 8.0 | 12.9 | 0.00 | 0.00 | 0.00 | 46 | 1011.9 |
| 20260506204021 | 11 | 239 | 8.0 | 12.9 | 0.00 | 0.00 | 0.00 | 47 | 1011.9 |
| 20260506203859 | 11 | 285 | 4.8 | 11.3 | 0.00 | 0.00 | 0.00 | 47 | 1011.9 |
| 20260506203736 | 11 | 262 | 4.8 | 12.9 | 0.00 | 0.00 | 0.00 | 47 | 1012.0 |
| 20260506203556 | 11 | 276 | 6.4 | 12.9 | 0.00 | 0.00 | 0.00 | 46 | 1011.9 |
| 20260506203434 | 11 | 234 | 3.2 | 12.9 | 0.00 | 0.00 | 0.00 | 46 | 1012.0 |
| 20260506203312 | 11 | 253 | 6.4 | 12.9 | 0.00 | 0.00 | 0.00 | 46 | 1012.0 |
| 20260506203128 | 11 | 283 | 8.0 | 12.9 | 0.00 | 0.00 | 0.00 | 46 | 1012.0 |
| 20260506203006 | 11 | 253 | 8.0 | 12.9 | 0.00 | 0.00 | 0.00 | 47 | 1012.0 |
| 20260506202826 | 11 | 306 | 4.8 | 8.0 | 0.00 | 0.00 | 0.00 | 47 | 1011.9 |
| 20260506202702 | 11 | 325 | 4.8 | 8.0 | 0.00 | 0.00 | 0.00 | 47 | 1012.0 |
| 20260506202519 | 11 | 13 | 1.6 | 9.7 | 0.00 | 0.00 | 0.00 | 47 | 1012.0 |
| 20260506202357 | 10 | 343 | 1.6 | 11.3 | 0.00 | 0.00 | 0.00 | 47 | 1012.0 |
| 20260506202217 | 10 | 36 | 1.6 | 11.3 | 0.00 | 0.00 | 0.00 | 47 | 1012.0 |
| 20260506202056 | 10 | 31 | 3.2 | 11.3 | 0.00 | 0.00 | 0.00 | 47 | 1012.0 |
| 20260506201936 | 10 | 311 | 3.2 | 11.3 | 0.00 | 0.00 | 0.00 | 47 | 1012.0 |
| 20260506201814 | 10 | 289 | 6.4 | 11.3 | 0.00 | 0.00 | 0.00 | 47 | 1012.0 |
| 20260506201656 | 10 | 288 | 6.4 | 16.1 | 0.00 | 0.00 | 0.00 | 48 | 1012.1 |
| 20260506201533 | 10 | 294 | 3.2 | 16.1 | 0.00 | 0.00 | 0.00 | 47 | 1012.0 |
| 20260506201411 | 10 | 331 | 4.8 | 16.1 | 0.00 | 0.00 | 0.00 | 47 | 1011.9 |
| 20260506201248 | 10 | 297 | 6.4 | 16.1 | 0.00 | 0.00 | 0.00 | 46 | 1012.0 |
| 20260506201126 | 10 | 345 | 4.8 | 16.1 | 0.00 | 0.00 | 0.00 | 46 | 1012.0 |
| 20260506201008 | 10 | 321 | 8.0 | 16.1 | 0.00 | 0.00 | 0.00 | 46 | 1012.0 |
| 20260506200825 | 10 | 302 | 8.0 | 14.5 | 0.00 | 0.00 | 0.00 | 46 | 1012.0 |
| 20260506200705 | 10 | 317 | 6.4 | 16.1 | 0.00 | 0.00 | 0.00 | 47 | 1012.0 |
| 20260506200543 | 10 | 335 | 8.0 | 16.1 | 0.00 | 0.00 | 0.00 | 47 | 1012.0 |
| 20260506200424 | 10 | 297 | 8.0 | 16.1 | 0.00 | 0.00 | 0.00 | 48 | 1011.9 |
| 20260506200304 | 10 | 306 | 6.4 | 17.7 | 0.00 | 0.00 | 0.00 | 48 | 1011.9 |
| 20260506200121 | 10 | 286 | 6.4 | 24.1 | 0.00 | 0.00 | 0.00 | 47 | 1011.9 |
| 20260506200000 | 10 | 309 | 9.7 | 24.1 | 0.00 | 0.00 | 0.00 | 47 | 1012.0 |
| 20260506195842 | 10 | 301 | 9.7 | 24.1 | 0.00 | 0.00 | 0.00 | 47 | 1012.0 |
| 20260506195719 | 10 | 298 | 11.3 | 24.1 | 0.00 | 0.00 | 0.00 | 47 | 1012.1 |
| 20260506195600 | 10 | 326 | 11.3 | 24.1 | 0.00 | 0.00 | 0.00 | 47 | 1012.0 |
| 20260506195438 | 10 | 281 | 14.5 | 24.1 | 0.00 | 0.00 | 0.00 | 47 | 1012.0 |
| 20260506195318 | 10 | 300 | 11.3 | 22.5 | 0.00 | 0.00 | 0.00 | 47 | 1012.1 |
| 20260506195159 | 10 | 278 | 4.8 | 20.9 | 0.00 | 0.00 | 0.00 | 46 | 1012.2 |
| 20260506195038 | 10 | 289 | 6.4 | 20.9 | 0.00 | 0.00 | 0.00 | 46 | 1012.2 |
| 20260506194916 | 10 | 306 | 4.8 | 20.9 | 0.00 | 0.00 | 0.00 | 46 | 1012.2 |
| 20260506194756 | 10 | 305 | 8.0 | 20.9 | 0.00 | 0.00 | 0.00 | 46 | 1012.2 |
| 20260506194620 | 10 | 300 | 12.9 | 20.9 | 0.00 | 0.00 | 0.00 | 46 | 1012.2 |
| 20260506194435 | 10 | 309 | 16.1 | 20.9 | 0.00 | 0.00 | 0.00 | 45 | 1012.2 |
| 20260506194315 | 10 | 301 | 11.3 | 20.9 | 0.00 | 0.00 | 0.00 | 46 | 1012.2 |
| 20260506194153 | 10 | 309 | 9.7 | 20.9 | 0.00 | 0.00 | 0.00 | 45 | 1012.2 |
| 20260506194036 | 10 | 304 | 11.3 | 20.9 | 0.00 | 0.00 | 0.00 | 45 | 1012.2 |
| 20260506193914 | 10 | 292 | 14.5 | 20.9 | 0.00 | 0.00 | 0.00 | 45 | 1012.1 |
| 20260506193752 | 11 | 291 | 9.7 | 19.3 | 0.00 | 0.00 | 0.00 | 47 | 1012.1 |
| 20260506193610 | 10 | 302 | 6.4 | 14.5 | 0.00 | 0.00 | 0.00 | 46 | 1012.1 |
| 20260506193452 | 10 | 315 | 6.4 | 12.9 | 0.00 | 0.00 | 0.00 | 46 | 1012.1 |
| 20260506193329 | 10 | 310 | 4.8 | 14.5 | 0.00 | 0.00 | 0.00 | 47 | 1012.2 |
| 20260506193208 | 10 | 298 | 3.2 | 14.5 | 0.00 | 0.00 | 0.00 | 47 | 1012.2 |
| 20260506193024 | 10 | 301 | 4.8 | 14.5 | 0.00 | 0.00 | 0.00 | 46 | 1012.1 |
| 20260506192903 | 10 | 290 | 6.4 | 14.5 | 0.00 | 0.00 | 0.00 | 46 | 1012.2 |
| 20260506192745 | 10 | 306 | 9.7 | 14.5 | 0.00 | 0.00 | 0.00 | 46 | 1012.2 |
| 20260506192605 | 10 | 297 | 8.0 | 14.5 | 0.00 | 0.00 | 0.00 | 47 | 1012.2 |
| 20260506192446 | 10 | 248 | 6.4 | 11.3 | 0.00 | 0.00 | 0.00 | 47 | 1012.2 |
| 20260506192323 | 10 | 310 | 6.4 | 11.3 | 0.00 | 0.00 | 0.00 | 47 | 1012.2 |
| 20260506192206 | 10 | 304 | 3.2 | 9.7 | 0.00 | 0.00 | 0.00 | 48 | 1012.2 |
| 20260506192045 | 10 | 342 | 3.2 | 8.0 | 0.00 | 0.00 | 0.00 | 47 | 1012.3 |
| 20260506191922 | 10 | 302 | 4.8 | 8.0 | 0.00 | 0.00 | 0.00 | 47 | 1012.3 |
| 20260506191803 | 10 | 292 | 3.2 | 11.3 | 0.00 | 0.00 | 0.00 | 47 | 1012.3 |
| 20260506191628 | 10 | 135 | 1.6 | 11.3 | 0.00 | 0.00 | 0.00 | 46 | 1012.4 |
| 20260506191508 | 10 | 113 | 1.6 | 12.9 | 0.00 | 0.00 | 0.00 | 46 | 1012.3 |
| 20260506191324 | 10 | 344 | 0.0 | 12.9 | 0.00 | 0.00 | 0.00 | 47 | 1012.3 |
| 20260506191201 | 10 | 323 | 3.2 | 12.9 | 0.00 | 0.00 | 0.00 | 47 | 1012.3 |
| 20260506191027 | 10 | 325 | 6.4 | 14.5 | 0.00 | 0.00 | 0.00 | 47 | 1012.3 |
| 20260506190909 | 10 | 294 | 6.4 | 22.5 | 0.00 | 0.00 | 0.00 | 48 | 1012.3 |
| 20260506190748 | 10 | 325 | 8.0 | 22.5 | 0.00 | 0.00 | 0.00 | 47 | 1012.3 |
| 20260506190629 | 10 | 337 | 6.4 | 22.5 | 0.00 | 0.00 | 0.00 | 49 | 1012.4 |
| 20260506190433 | 10 | 294 | 6.4 | 22.5 | 0.00 | 0.00 | 0.00 | 47 | 1012.4 |
| 20260506190311 | 10 | 277 | 9.7 | 22.5 | 0.00 | 0.00 | 0.00 | 47 | 1012.4 |
| 20260506190150 | 10 | 5 | 11.3 | 22.5 | 0.00 | 0.00 | 0.00 | 46 | 1012.4 |
| 20260506190008 | 10 | 355 | 9.7 | 20.9 | 0.00 | 0.00 | 0.00 | 46 | 1012.4 |
| 20260506185849 | 10 | 261 | 8.0 | 25.7 | 0.00 | 0.00 | 0.00 | 47 | 1012.4 |
| 20260506185726 | 10 | 277 | 6.4 | 25.7 | 0.00 | 0.00 | 0.00 | 48 | 1012.4 |
| 20260506185604 | 10 | 311 | 8.0 | 25.7 | 0.00 | 0.00 | 0.00 | 47 | 1012.4 |
| 20260506185421 | 10 | 292 | 11.3 | 25.7 | 0.00 | 0.00 | 0.00 | 47 | 1012.4 |
| 20260506185257 | 10 | 292 | 16.1 | 25.7 | 0.00 | 0.00 | 0.00 | 46 | 1012.4 |
| 20260506185139 | 10 | 300 | 12.9 | 25.7 | 0.00 | 0.00 | 0.00 | 47 | 1012.4 |
| 20260506185018 | 10 | 306 | 8.0 | 17.7 | 0.00 | 0.00 | 0.00 | 47 | 1012.3 |
| 20260506184859 | 10 | 244 | 9.7 | 17.7 | 0.00 | 0.00 | 0.00 | 46 | 1012.2 |
| 20260506184740 | 10 | 295 | 11.3 | 17.7 | 0.00 | 0.00 | 0.00 | 46 | 1012.3 |
| 20260506184601 | 10 | 346 | 12.9 | 17.7 | 0.00 | 0.00 | 0.00 | 46 | 1012.3 |
| 20260506184438 | 10 | 302 | 9.7 | 17.7 | 0.00 | 0.00 | 0.00 | 47 | 1012.3 |
| 20260506184315 | 10 | 288 | 6.4 | 14.5 | 0.00 | 0.00 | 0.00 | 48 | 1012.3 |
| 20260506184153 | 10 | 317 | 6.4 | 14.5 | 0.00 | 0.00 | 0.00 | 48 | 1012.3 |
| 20260506184035 | 10 | 301 | 8.0 | 14.5 | 0.00 | 0.00 | 0.00 | 48 | 1012.3 |
| 20260506183912 | 10 | 329 | 6.4 | 14.5 | 0.00 | 0.00 | 0.00 | 49 | 1012.3 |
| 20260506183751 | 10 | 331 | 3.2 | 14.5 | 0.00 | 0.00 | 0.00 | 49 | 1012.3 |
| 20260506183630 | 10 | 321 | 4.8 | 14.5 | 0.00 | 0.00 | 0.00 | 49 | 1012.3 |
| 20260506183453 | 10 | 301 | 9.7 | 14.5 | 0.00 | 0.00 | 0.00 | 48 | 1012.3 |
| 20260506183330 | 10 | 306 | 9.7 | 14.5 | 0.00 | 0.00 | 0.00 | 48 | 1012.3 |
| 20260506183209 | 10 | 317 | 8.0 | 14.5 | 0.00 | 0.00 | 0.00 | 48 | 1012.3 |
| 20260506183047 | 10 | 302 | 9.7 | 14.5 | 0.00 | 0.00 | 0.00 | 49 | 1012.2 |
| 20260506182905 | 10 | 304 | 9.7 | 14.5 | 0.00 | 0.00 | 0.00 | 49 | 1012.3 |
| 20260506182746 | 10 | 292 | 9.7 | 14.5 | 0.00 | 0.00 | 0.00 | 48 | 1012.2 |
| 20260506182623 | 10 | 340 | 8.0 | 14.5 | 0.00 | 0.00 | 0.00 | 51 | 1012.3 |
| 20260506182503 | 10 | 13 | 6.4 | 19.3 | 0.00 | 0.00 | 0.00 | 51 | 1012.2 |
| 20260506182340 | 10 | 18 | 8.0 | 20.9 | 0.00 | 0.00 | 0.00 | 50 | 1012.2 |
| 20260506182221 | 10 | 320 | 6.4 | 20.9 | 0.00 | 0.00 | 0.00 | 49 | 1012.2 |
| 20260506182059 | 10 | 311 | 6.4 | 20.9 | 0.00 | 0.00 | 0.00 | 49 | 1012.2 |
| 20260506181937 | 10 | 282 | 6.4 | 20.9 | 0.00 | 0.00 | 0.00 | 48 | 1012.2 |
| 20260506181816 | 10 | 307 | 11.3 | 20.9 | 0.00 | 0.00 | 0.00 | 48 | 1012.2 |
| 20260506181637 | 10 | 298 | 14.5 | 20.9 | 0.00 | 0.00 | 0.00 | 48 | 1012.2 |
| 20260506181514 | 10 | 319 | 8.0 | 20.9 | 0.00 | 0.00 | 0.00 | 50 | 1012.2 |
| 20260506181355 | 10 | 17 | 1.6 | 14.5 | 0.00 | 0.00 | 0.00 | 50 | 1012.2 |
| 20260506181233 | 10 | 315 | 3.2 | 14.5 | 0.00 | 0.00 | 0.00 | 49 | 1012.1 |
| 20260506181049 | 10 | 355 | 6.4 | 14.5 | 0.00 | 0.00 | 0.00 | 49 | 1012.2 |
| 20260506180930 | 10 | 330 | 6.4 | 14.5 | 0.00 | 0.00 | 0.00 | 49 | 1012.2 |
| 20260506180807 | 10 | 5 | 9.7 | 17.7 | 0.00 | 0.00 | 0.00 | 48 | 1012.2 |
| 20260506180645 | 10 | 319 | 4.8 | 17.7 | 0.00 | 0.00 | 0.00 | 49 | 1012.3 |
| 20260506180502 | 10 | 303 | 1.6 | 17.7 | 0.00 | 0.00 | 0.00 | 49 | 1012.2 |
| 20260506180342 | 10 | 360 | 3.2 | 17.7 | 0.00 | 0.00 | 0.00 | 49 | 1012.2 |
| 20260506180220 | 10 | 329 | 4.8 | 17.7 | 0.00 | 0.00 | 0.00 | 49 | 1012.3 |
| 20260506180059 | 10 | 330 | 8.0 | 17.7 | 0.00 | 0.00 | 0.00 | 49 | 1012.3 |
| 20260506175919 | 10 | 336 | 9.7 | 17.7 | 0.00 | 0.00 | 0.00 | 50 | 1012.3 |
| 20260506175802 | 10 | 330 | 11.3 | 17.7 | 0.00 | 0.00 | 0.00 | 51 | 1012.3 |
| 20260506175639 | 10 | 309 | 8.0 | 17.7 | 0.00 | 0.00 | 0.00 | 51 | 1012.3 |
| 20260506175518 | 9 | 12 | 6.4 | 11.3 | 0.00 | 0.00 | 0.00 | 50 | 1012.3 |
| 20260506175356 | 10 | 298 | 8.0 | 11.3 | 0.00 | 0.00 | 0.00 | 50 | 1012.2 |
| 20260506175232 | 10 | 20 | 4.8 | 12.9 | 0.00 | 0.00 | 0.00 | 50 | 1012.3 |
| 20260506175114 | 10 | 15 | 3.2 | 16.1 | 0.00 | 0.00 | 0.00 | 49 | 1012.3 |
| 20260506174952 | 10 | 9 | 3.2 | 16.1 | 0.00 | 0.00 | 0.00 | 49 | 1012.3 |
| 20260506174830 | 10 | 10 | 3.2 | 16.1 | 0.00 | 0.00 | 0.00 | 49 | 1012.3 |
| 20260506174707 | 10 | 321 | 3.2 | 16.1 | 0.00 | 0.00 | 0.00 | 49 | 1012.4 |
| 20260506174548 | 10 | 261 | 6.4 | 16.1 | 0.00 | 0.00 | 0.00 | 49 | 1012.4 |
| 20260506174425 | 10 | 288 | 9.7 | 16.1 | 0.00 | 0.00 | 0.00 | 49 | 1012.4 |
| 20260506174303 | 10 | 290 | 8.0 | 16.1 | 0.00 | 0.00 | 0.00 | 50 | 1012.5 |
| 20260506174143 | 10 | 300 | 6.4 | 16.1 | 0.00 | 0.00 | 0.00 | 51 | 1012.5 |
| 20260506174025 | 10 | 254 | 9.7 | 16.1 | 0.00 | 0.00 | 0.00 | 49 | 1012.6 |
| 20260506173903 | 10 | 288 | 8.0 | 16.1 | 0.00 | 0.00 | 0.00 | 50 | 1012.6 |
| 20260506173743 | 10 | 315 | 8.0 | 14.5 | 0.00 | 0.00 | 0.00 | 52 | 1012.6 |
| 20260506173621 | 10 | 349 | 6.4 | 14.5 | 0.00 | 0.00 | 0.00 | 53 | 1012.6 |
| 20260506173446 | 10 | 333 | 3.2 | 16.1 | 0.00 | 0.00 | 0.00 | 53 | 1012.6 |
| 20260506173324 | 9 | 88 | 3.2 | 16.1 | 0.00 | 0.00 | 0.00 | 51 | 1012.6 |
| 20260506173203 | 9 | 67 | 6.4 | 16.1 | 0.00 | 0.00 | 0.00 | 51 | 1012.7 |
| 20260506173040 | 9 | 311 | 8.0 | 16.1 | 0.00 | 0.00 | 0.00 | 52 | 1012.7 |
| 20260506172919 | 9 | 330 | 6.4 | 16.1 | 0.00 | 0.00 | 0.00 | 52 | 1012.8 |
| 20260506172741 | 9 | 341 | 8.0 | 16.1 | 0.00 | 0.00 | 0.00 | 52 | 1012.8 |
| 20260506172618 | 9 | 341 | 8.0 | 19.3 | 0.00 | 0.00 | 0.00 | 53 | 1012.8 |
| 20260506172456 | 9 | 313 | 8.0 | 19.3 | 0.00 | 0.00 | 0.00 | 53 | 1012.8 |
| 20260506172333 | 9 | 337 | 9.7 | 19.3 | 0.00 | 0.00 | 0.00 | 53 | 1012.8 |
| 20260506172216 | 9 | 336 | 11.3 | 20.9 | 0.00 | 0.00 | 0.00 | 53 | 1012.8 |
| 20260506172053 | 9 | 360 | 8.0 | 20.9 | 0.00 | 0.00 | 0.00 | 53 | 1012.9 |
| 20260506171931 | 9 | 283 | 11.3 | 20.9 | 0.00 | 0.00 | 0.00 | 51 | 1012.8 |
| 20260506171809 | 9 | 315 | 8.0 | 20.9 | 0.00 | 0.00 | 0.00 | 52 | 1012.9 |
| 20260506171650 | 9 | 306 | 9.7 | 20.9 | 0.00 | 0.00 | 0.00 | 52 | 1012.8 |
| 20260506171528 | 9 | 301 | 8.0 | 20.9 | 0.00 | 0.00 | 0.00 | 51 | 1012.7 |
| 20260506171345 | 9 | 335 | 3.2 | 19.3 | 0.00 | 0.00 | 0.00 | 51 | 1012.7 |
| 20260506171224 | 9 | 325 | 9.7 | 19.3 | 0.00 | 0.00 | 0.00 | 51 | 1012.7 |
| 20260506171048 | 9 | 315 | 12.9 | 25.7 | 0.00 | 0.00 | 0.00 | 51 | 1012.8 |
| 20260506170925 | 9 | 318 | 11.3 | 25.7 | 0.00 | 0.00 | 0.00 | 51 | 1012.7 |
| 20260506170805 | 9 | 309 | 11.3 | 25.7 | 0.00 | 0.00 | 0.00 | 51 | 1012.7 |
| 20260506170642 | 9 | 355 | 12.9 | 25.7 | 0.00 | 0.00 | 0.00 | 51 | 1012.6 |
| 20260506170506 | 9 | 316 | 12.9 | 25.7 | 0.00 | 0.00 | 0.00 | 52 | 1012.6 |
| 20260506170344 | 9 | 346 | 14.5 | 25.7 | 0.00 | 0.00 | 0.00 | 51 | 1012.6 |
| 20260506170222 | 9 | 341 | 8.0 | 22.5 | 0.00 | 0.00 | 0.00 | 51 | 1012.5 |
| 20260506165927 | 9 | 347 | 6.4 | 22.5 | 0.00 | 0.00 | 0.00 | 50 | 1012.5 |
| 20260506165804 | 9 | 9 | 9.7 | 22.5 | 0.00 | 0.00 | 0.00 | 51 | 1012.6 |
| 20260506165642 | 9 | 360 | 12.9 | 22.5 | 0.00 | 0.00 | 0.00 | 53 | 1012.7 |
| 20260506165521 | 9 | 302 | 12.9 | 22.5 | 0.00 | 0.00 | 0.00 | 54 | 1012.6 |
| 20260506165345 | 9 | 269 | 9.7 | 22.5 | 0.00 | 0.00 | 0.00 | 54 | 1012.6 |
| 20260506165225 | 9 | 269 | 9.7 | 22.5 | 0.00 | 0.00 | 0.00 | 55 | 1012.6 |
| 20260506165104 | 9 | 302 | 11.3 | 22.5 | 0.00 | 0.00 | 0.00 | 55 | 1012.6 |
| 20260506164943 | 9 | 46 | 12.9 | 22.5 | 0.00 | 0.00 | 0.00 | 54 | 1012.6 |
| 20260506164820 | 9 | 306 | 9.7 | 19.3 | 0.00 | 0.00 | 0.00 | 56 | 1012.7 |
| 20260506164701 | 9 | 284 | 11.3 | 19.3 | 0.00 | 0.00 | 0.00 | 55 | 1012.7 |
| 20260506164541 | 9 | 309 | 14.5 | 19.3 | 0.00 | 0.00 | 0.00 | 54 | 1012.7 |
| 20260506164418 | 9 | 297 | 11.3 | 19.3 | 0.00 | 0.00 | 0.00 | 54 | 1012.7 |
| 20260506164256 | 9 | 273 | 8.0 | 19.3 | 0.00 | 0.00 | 0.00 | 52 | 1012.7 |
| 20260506164120 | 9 | 304 | 8.0 | 19.3 | 0.00 | 0.00 | 0.00 | 51 | 1012.7 |
| 20260506163957 | 9 | 321 | 11.3 | 19.3 | 0.00 | 0.00 | 0.00 | 52 | 1012.7 |
| 20260506163838 | 9 | 294 | 11.3 | 19.3 | 0.00 | 0.00 | 0.00 | 53 | 1012.7 |
| 20260506163717 | 9 | 290 | 9.7 | 19.3 | 0.00 | 0.00 | 0.00 | 55 | 1012.7 |
| 20260506163600 | 9 | 263 | 8.0 | 19.3 | 0.00 | 0.00 | 0.00 | 56 | 1012.7 |
| 20260506163438 | 9 | 309 | 8.0 | 19.3 | 0.00 | 0.00 | 0.00 | 57 | 1012.7 |
| 20260506163314 | 9 | 304 | 9.7 | 20.9 | 0.00 | 0.00 | 0.00 | 57 | 1012.6 |
| 20260506163155 | 9 | 316 | 11.3 | 22.5 | 0.00 | 0.00 | 0.00 | 56 | 1012.6 |
| 20260506163036 | 9 | 324 | 12.9 | 22.5 | 0.00 | 0.00 | 0.00 | 55 | 1012.6 |
| 20260506162916 | 9 | 299 | 11.3 | 22.5 | 0.00 | 0.00 | 0.00 | 57 | 1012.5 |
| 20260506162753 | 9 | 289 | 11.3 | 22.5 | 0.00 | 0.00 | 0.00 | 58 | 1012.5 |
| 20260506162608 | 9 | 279 | 11.3 | 22.5 | 0.00 | 0.00 | 0.00 | 56 | 1012.5 |
| 20260506162449 | 8 | 304 | 16.1 | 22.5 | 0.00 | 0.00 | 0.00 | 56 | 1012.5 |
| 20260506162331 | 8 | 289 | 14.5 | 22.5 | 0.00 | 0.00 | 0.00 | 57 | 1012.5 |
| 20260506162208 | 8 | 273 | 9.7 | 16.1 | 0.00 | 0.00 | 0.00 | 57 | 1012.5 |
| 20260506162046 | 8 | 333 | 8.0 | 19.3 | 0.00 | 0.00 | 0.00 | 57 | 1012.6 |
| 20260506161925 | 8 | 340 | 8.0 | 19.3 | 0.00 | 0.00 | 0.00 | 57 | 1012.6 |
| 20260506161750 | 8 | 5 | 8.0 | 19.3 | 0.00 | 0.00 | 0.00 | 57 | 1012.6 |
| 20260506161627 | 8 | 304 | 8.0 | 19.3 | 0.00 | 0.00 | 0.00 | 55 | 1012.6 |
| 20260506161444 | 8 | 286 | 8.0 | 19.3 | 0.00 | 0.00 | 0.00 | 56 | 1012.6 |
| 20260506161322 | 8 | 286 | 12.9 | 19.3 | 0.00 | 0.00 | 0.00 | 55 | 1012.7 |
| 20260506161204 | 8 | 315 | 11.3 | 19.3 | 0.00 | 0.00 | 0.00 | 56 | 1012.7 |
| 20260506161043 | 8 | 309 | 9.7 | 17.7 | 0.00 | 0.00 | 0.00 | 56 | 1012.6 |
| 20260506160859 | 8 | 298 | 9.7 | 17.7 | 0.00 | 0.00 | 0.00 | 57 | 1012.6 |
| 20260506160735 | 8 | 315 | 9.7 | 20.9 | 0.00 | 0.00 | 0.00 | 57 | 1012.7 |
| 20260506160617 | 8 | 304 | 8.0 | 20.9 | 0.00 | 0.00 | 0.00 | 58 | 1012.7 |
| 20260506160455 | 8 | 322 | 8.0 | 20.9 | 0.00 | 0.00 | 0.00 | 58 | 1012.7 |
| 20260506160333 | 8 | 294 | 9.7 | 20.9 | 0.00 | 0.00 | 0.00 | 58 | 1012.8 |
| 20260506160209 | 8 | 303 | 6.4 | 20.9 | 0.00 | 0.00 | 0.00 | 56 | 1012.7 |
| 20260506160047 | 8 | 346 | 11.3 | 20.9 | 0.00 | 0.00 | 0.00 | 56 | 1012.9 |
| 20260506155908 | 8 | 324 | 9.7 | 20.9 | 0.00 | 0.00 | 0.00 | 58 | 1013.0 |
| 20260506155745 | 8 | 336 | 8.0 | 19.3 | 0.00 | 0.00 | 0.00 | 58 | 1013.0 |
| 20260506155623 | 8 | 343 | 8.0 | 19.3 | 0.00 | 0.00 | 0.00 | 58 | 1012.9 |
| 20260506155500 | 8 | 315 | 6.4 | 19.3 | 0.00 | 0.00 | 0.00 | 59 | 1012.8 |
| 20260506155341 | 8 | 333 | 8.0 | 19.3 | 0.00 | 0.00 | 0.00 | 58 | 1012.8 |
| 20260506155220 | 8 | 338 | 6.4 | 19.3 | 0.00 | 0.00 | 0.00 | 58 | 1012.6 |
| 20260506155057 | 8 | 308 | 6.4 | 19.3 | 0.00 | 0.00 | 0.00 | 58 | 1012.6 |
| 20260506154935 | 8 | 333 | 8.0 | 19.3 | 0.00 | 0.00 | 0.00 | 58 | 1012.6 |
| 20260506154817 | 8 | 355 | 8.0 | 19.3 | 0.00 | 0.00 | 0.00 | 59 | 1012.6 |
| 20260506154655 | 8 | 76 | 8.0 | 19.3 | 0.00 | 0.00 | 0.00 | 59 | 1012.6 |
| 20260506154532 | 8 | 320 | 11.3 | 24.1 | 0.00 | 0.00 | 0.00 | 59 | 1012.6 |
| 20260506154349 | 8 | 343 | 9.7 | 24.1 | 0.00 | 0.00 | 0.00 | 60 | 1012.6 |
| 20260506154146 | 8 | 327 | 9.7 | 24.1 | 0.00 | 0.00 | 0.00 | 59 | 1012.6 |
| 20260506154029 | 8 | 341 | 9.7 | 24.1 | 0.00 | 0.00 | 0.00 | 60 | 1012.6 |
| 20260506153845 | 8 | 319 | 12.9 | 24.1 | 0.00 | 0.00 | 0.00 | 60 | 1012.5 |
| 20260506153722 | 8 | 316 | 9.7 | 20.9 | 0.00 | 0.00 | 0.00 | 60 | 1012.5 |
| 20260506153601 | 8 | 351 | 6.4 | 20.9 | 0.00 | 0.00 | 0.00 | 60 | 1012.5 |
| 20260506153444 | 8 | 290 | 9.7 | 20.9 | 0.00 | 0.00 | 0.00 | 60 | 1012.5 |
| 20260506153322 | 8 | 235 | 9.7 | 20.9 | 0.00 | 0.00 | 0.00 | 60 | 1012.4 |
| 20260506153159 | 8 | 322 | 14.5 | 20.9 | 0.00 | 0.00 | 0.00 | 59 | 1012.5 |
| 20260506153014 | 8 | 304 | 8.0 | 20.9 | 0.00 | 0.00 | 0.00 | 60 | 1012.4 |
| 20260506152834 | 8 | 298 | 4.8 | 20.9 | 0.00 | 0.00 | 0.00 | 60 | 1012.5 |
| 20260506152653 | 8 | 285 | 8.0 | 20.9 | 0.00 | 0.00 | 0.00 | 60 | 1012.5 |
| 20260506152532 | 8 | 342 | 11.3 | 20.9 | 0.00 | 0.00 | 0.00 | 61 | 1012.4 |
| 20260506152410 | 8 | 259 | 8.0 | 17.7 | 0.00 | 0.00 | 0.00 | 60 | 1012.4 |
| 20260506152245 | 8 | 294 | 8.0 | 17.7 | 0.00 | 0.00 | 0.00 | 60 | 1012.4 |
| 20260506152127 | 8 | 360 | 9.7 | 17.7 | 0.00 | 0.00 | 0.00 | 60 | 1012.4 |
| 20260506152005 | 8 | 330 | 9.7 | 17.7 | 0.00 | 0.00 | 0.00 | 60 | 1012.3 |
| 20260506151842 | 8 | 330 | 6.4 | 12.9 | 0.00 | 0.00 | 0.00 | 61 | 1012.3 |
| 20260506151718 | 8 | 300 | 6.4 | 19.3 | 0.00 | 0.00 | 0.00 | 60 | 1012.3 |
| 20260506151600 | 8 | 296 | 6.4 | 19.3 | 0.00 | 0.00 | 0.00 | 61 | 1012.3 |
| 20260506151439 | 8 | 288 | 4.8 | 19.3 | 0.00 | 0.00 | 0.00 | 61 | 1012.4 |
| 20260506151316 | 8 | 331 | 8.0 | 19.3 | 0.00 | 0.00 | 0.00 | 60 | 1012.4 |
| 20260506151132 | 8 | 337 | 9.7 | 19.3 | 0.00 | 0.00 | 0.00 | 59 | 1012.4 |
| 20260506150956 | 8 | 301 | 11.3 | 19.3 | 0.00 | 0.00 | 0.00 | 59 | 1012.4 |
| 20260506150834 | 8 | 321 | 14.5 | 19.3 | 0.00 | 0.00 | 0.00 | 60 | 1012.3 |
| 20260506150715 | 8 | 326 | 11.3 | 19.3 | 0.00 | 0.00 | 0.00 | 61 | 1012.3 |
| 20260506150553 | 8 | 333 | 9.7 | 20.9 | 0.00 | 0.00 | 0.00 | 61 | 1012.3 |
| 20260506150435 | 8 | 5 | 9.7 | 20.9 | 0.00 | 0.00 | 0.00 | 61 | 1012.3 |
| 20260506150311 | 8 | 20 | 9.7 | 20.9 | 0.00 | 0.00 | 0.00 | 61 | 1012.4 |
| 20260506150149 | 8 | 311 | 9.7 | 20.9 | 0.00 | 0.00 | 0.00 | 61 | 1012.5 |
| 20260506150028 | 8 | 344 | 12.9 | 20.9 | 0.00 | 0.00 | 0.00 | 61 | 1012.4 |
| 20260506145844 | 8 | 284 | 12.9 | 20.9 | 0.00 | 0.00 | 0.00 | 61 | 1012.4 |
| 20260506145726 | 8 | 324 | 6.4 | 17.7 | 0.00 | 0.00 | 0.00 | 62 | 1012.3 |
| 20260506145606 | 8 | 344 | 6.4 | 17.7 | 0.00 | 0.00 | 0.00 | 62 | 1012.3 |
| 20260506145444 | 8 | 342 | 8.0 | 17.7 | 0.00 | 0.00 | 0.00 | 63 | 1012.3 |
| 20260506145322 | 8 | 291 | 6.4 | 17.7 | 0.00 | 0.00 | 0.00 | 63 | 1012.3 |
| 20260506145203 | 8 | 304 | 9.7 | 17.7 | 0.00 | 0.00 | 0.00 | 62 | 1012.3 |
| 20260506145024 | 8 | 313 | 12.9 | 17.7 | 0.00 | 0.00 | 0.00 | 62 | 1012.3 |
| 20260506144903 | 8 | 292 | 12.9 | 17.7 | 0.00 | 0.00 | 0.00 | 62 | 1012.3 |
| 20260506144741 | 8 | 339 | 9.7 | 16.1 | 0.00 | 0.00 | 0.00 | 63 | 1012.3 |
| 20260506144621 | 7 | 314 | 8.0 | 16.1 | 0.00 | 0.00 | 0.00 | 63 | 1012.3 |
| 20260506144456 | 7 | 294 | 11.3 | 16.1 | 0.00 | 0.00 | 0.00 | 63 | 1012.2 |
| 20260506144334 | 7 | 296 | 9.7 | 16.1 | 0.00 | 0.00 | 0.00 | 64 | 1012.1 |
| 20260506144212 | 7 | 323 | 6.4 | 12.9 | 0.00 | 0.00 | 0.00 | 63 | 1012.2 |
| 20260506144050 | 7 | 297 | 9.7 | 12.9 | 0.00 | 0.00 | 0.00 | 63 | 1012.2 |
| 20260506143930 | 7 | 294 | 9.7 | 12.9 | 0.00 | 0.00 | 0.00 | 64 | 1012.3 |
| 20260506143807 | 7 | 293 | 6.4 | 14.5 | 0.00 | 0.00 | 0.00 | 66 | 1012.3 |
| 20260506143645 | 7 | 304 | 4.8 | 14.5 | 0.00 | 0.00 | 0.00 | 66 | 1012.3 |
| 20260506143521 | 7 | 284 | 6.4 | 14.5 | 0.00 | 0.00 | 0.00 | 66 | 1012.2 |
| 20260506143346 | 7 | 294 | 4.8 | 14.5 | 0.00 | 0.00 | 0.00 | 67 | 1012.2 |
| 20260506143225 | 7 | 311 | 1.6 | 14.5 | 0.00 | 0.00 | 0.00 | 66 | 1012.1 |
| 20260506143103 | 7 | 325 | 8.0 | 14.5 | 0.00 | 0.00 | 0.00 | 66 | 1012.0 |
| 20260506142918 | 7 | 327 | 8.0 | 12.9 | 0.00 | 0.00 | 0.00 | 66 | 1011.9 |
| 20260506142801 | 7 | 26 | 8.0 | 12.9 | 0.00 | 0.00 | 0.00 | 66 | 1011.9 |
| 20260506142642 | 7 | 30 | 4.8 | 8.0 | 0.00 | 0.00 | 0.00 | 66 | 1011.9 |
| 20260506142457 | 7 | 56 | 1.6 | 11.3 | 0.00 | 0.00 | 0.00 | 68 | 1011.9 |
| 20260506142334 | 7 | 94 | 3.2 | 11.3 | 0.00 | 0.00 | 0.00 | 67 | 1011.9 |
| 20260506142215 | 7 | 61 | 3.2 | 11.3 | 0.00 | 0.00 | 0.00 | 68 | 1011.9 |
| 20260506142056 | 7 | 302 | 3.2 | 11.3 | 0.00 | 0.00 | 0.00 | 68 | 1011.9 |
| 20260506141938 | 7 | 317 | 3.2 | 11.3 | 0.00 | 0.00 | 0.00 | 69 | 1011.9 |
| 20260506141816 | 7 | 12 | 6.4 | 11.3 | 0.00 | 0.00 | 0.00 | 69 | 1011.8 |
| 20260506141640 | 7 | 318 | 3.2 | 12.9 | 0.00 | 0.00 | 0.00 | 69 | 1011.8 |
| 20260506141517 | 6 | 63 | 3.2 | 12.9 | 0.00 | 0.00 | 0.00 | 69 | 1011.8 |
| 20260506141354 | 6 | 73 | 4.8 | 12.9 | 0.00 | 0.00 | 0.00 | 69 | 1011.9 |
| 20260506141233 | 6 | 349 | 8.0 | 12.9 | 0.00 | 0.00 | 0.00 | 69 | 1011.9 |
| 20260506141111 | 7 | 24 | 8.0 | 12.9 | 0.00 | 0.00 | 0.00 | 70 | 1011.9 |
| 20260506140933 | 6 | 42 | 4.8 | 12.9 | 0.00 | 0.00 | 0.00 | 70 | 1011.9 |
| 20260506140810 | 6 | 360 | 3.2 | 11.3 | 0.00 | 0.00 | 0.00 | 70 | 1011.8 |
| 20260506140648 | 6 | 20 | 6.4 | 11.3 | 0.00 | 0.00 | 0.00 | 70 | 1011.8 |
| 20260506140528 | 6 | 63 | 6.4 | 12.9 | 0.00 | 0.00 | 0.00 | 70 | 1011.8 |
| 20260506140409 | 6 | 63 | 8.0 | 12.9 | 0.00 | 0.00 | 0.00 | 70 | 1011.8 |
| 20260506140247 | 6 | 30 | 3.2 | 11.3 | 0.00 | 0.00 | 0.00 | 71 | 1011.8 |
| 20260506140126 | 6 | 327 | 3.2 | 11.3 | 0.00 | 0.00 | 0.00 | 71 | 1011.7 |
| 20260506140006 | 6 | 5 | 4.8 | 11.3 | 0.00 | 0.00 | 0.00 | 72 | 1011.7 |
| 20260506135847 | 6 | 5 | 6.4 | 14.5 | 0.00 | 0.00 | 0.00 | 72 | 1011.7 |
| 20260506135702 | 6 | 326 | 4.8 | 17.7 | 0.00 | 0.00 | 0.00 | 72 | 1011.7 |
| 20260506135543 | 6 | 15 | 4.8 | 17.7 | 0.00 | 0.00 | 0.00 | 71 | 1011.7 |
| 20260506135421 | 6 | 29 | 6.4 | 17.7 | 0.00 | 0.00 | 0.00 | 71 | 1011.7 |
| 20260506135301 | 6 | 63 | 8.0 | 17.7 | 0.00 | 0.00 | 0.00 | 72 | 1011.7 |
| 20260506135123 | 6 | 74 | 11.3 | 17.7 | 0.00 | 0.00 | 0.00 | 72 | 1011.7 |
| 20260506134939 | 6 | 23 | 9.7 | 17.7 | 0.00 | 0.00 | 0.00 | 72 | 1011.7 |
| 20260506134758 | 6 | 355 | 9.7 | 12.9 | 0.00 | 0.00 | 0.00 | 72 | 1011.6 |
| 20260506134614 | 6 | 337 | 6.4 | 16.1 | 0.00 | 0.00 | 0.00 | 72 | 1011.6 |
| 20260506134455 | 6 | 28 | 6.4 | 16.1 | 0.00 | 0.00 | 0.00 | 72 | 1011.6 |
| 20260506134335 | 6 | 42 | 6.4 | 16.1 | 0.00 | 0.00 | 0.00 | 73 | 1011.7 |
| 20260506134154 | 6 | 20 | 6.4 | 16.1 | 0.00 | 0.00 | 0.00 | 73 | 1011.7 |
| 20260506134035 | 6 | 43 | 4.8 | 16.1 | 0.00 | 0.00 | 0.00 | 74 | 1011.7 |
| 20260506133856 | 6 | 5 | 4.8 | 16.1 | 0.00 | 0.00 | 0.00 | 74 | 1011.7 |
| 20260506133736 | 6 | 9 | 8.0 | 16.1 | 0.00 | 0.00 | 0.00 | 73 | 1011.7 |
| 20260506133613 | 6 | 53 | 9.7 | 16.1 | 0.00 | 0.00 | 0.00 | 73 | 1011.7 |
| 20260506133454 | 6 | 39 | 9.7 | 16.1 | 0.00 | 0.00 | 0.00 | 73 | 1011.7 |
| 20260506133258 | 6 | 340 | 9.7 | 17.7 | 0.00 | 0.00 | 0.00 | 73 | 1011.7 |
| 20260506133138 | 6 | 355 | 3.2 | 20.9 | 0.00 | 0.00 | 0.00 | 74 | 1011.7 |
| 20260506133016 | 6 | 341 | 6.4 | 20.9 | 0.00 | 0.00 | 0.00 | 74 | 1011.7 |
| 20260506132854 | 6 | 355 | 8.0 | 20.9 | 0.00 | 0.00 | 0.00 | 74 | 1011.7 |
| 20260506132732 | 6 | 14 | 6.4 | 20.9 | 0.00 | 0.00 | 0.00 | 74 | 1011.6 |
| 20260506132615 | 6 | 32 | 9.7 | 20.9 | 0.00 | 0.00 | 0.00 | 74 | 1011.6 |
| 20260506132452 | 6 | 333 | 14.5 | 20.9 | 0.00 | 0.00 | 0.00 | 74 | 1011.5 |
| 20260506132331 | 6 | 355 | 9.7 | 19.3 | 0.00 | 0.00 | 0.00 | 74 | 1011.5 |
| 20260506132209 | 6 | 360 | 11.3 | 17.7 | 0.00 | 0.00 | 0.00 | 73 | 1011.5 |
| 20260506132052 | 7 | 22 | 11.3 | 17.7 | 0.00 | 0.00 | 0.00 | 73 | 1011.5 |
| 20260506131931 | 7 | 329 | 9.7 | 16.1 | 0.00 | 0.00 | 0.00 | 73 | 1011.4 |
| 20260506131809 | 7 | 355 | 6.4 | 16.1 | 0.00 | 0.00 | 0.00 | 73 | 1011.4 |
| 20260506131628 | 7 | 355 | 6.4 | 16.1 | 0.00 | 0.00 | 0.00 | 73 | 1011.4 |
| 20260506131511 | 7 | 5 | 9.7 | 16.1 | 0.00 | 0.00 | 0.00 | 73 | 1011.3 |
| 20260506131349 | 7 | 15 | 9.7 | 16.1 | 0.00 | 0.00 | 0.00 | 72 | 1011.3 |
| 20260506131225 | 7 | 329 | 9.7 | 16.1 | 0.00 | 0.00 | 0.00 | 72 | 1011.3 |
| 20260506131103 | 7 | 44 | 4.8 | 16.1 | 0.00 | 0.00 | 0.00 | 72 | 1011.3 |
| 20260506130943 | 7 | 5 | 3.2 | 16.1 | 0.00 | 0.00 | 0.00 | 72 | 1011.2 |
| 20260506130826 | 7 | 339 | 6.4 | 17.7 | 0.00 | 0.00 | 0.00 | 72 | 1011.3 |
| 20260506130703 | 7 | 328 | 6.4 | 17.7 | 0.00 | 0.00 | 0.00 | 72 | 1011.2 |
| 20260506130540 | 6 | 316 | 9.7 | 17.7 | 0.00 | 0.00 | 0.00 | 71 | 1011.1 |
| 20260506130418 | 7 | 17 | 11.3 | 17.7 | 0.00 | 0.00 | 0.00 | 71 | 1011.2 |
| 20260506130300 | 7 | 42 | 11.3 | 17.7 | 0.00 | 0.00 | 0.00 | 71 | 1011.2 |
| 20260506130138 | 7 | 15 | 9.7 | 17.7 | 0.00 | 0.00 | 0.00 | 71 | 1011.2 |
| 20260506130018 | 7 | 40 | 9.7 | 16.1 | 0.00 | 0.00 | 0.00 | 72 | 1011.1 |
| 20260506125856 | 7 | 327 | 9.7 | 16.1 | 0.00 | 0.00 | 0.00 | 72 | 1011.1 |
| 20260506125737 | 7 | 11 | 8.0 | 16.1 | 0.00 | 0.00 | 0.00 | 72 | 1011.1 |
| 20260506125615 | 7 | 314 | 6.4 | 19.3 | 0.00 | 0.00 | 0.00 | 72 | 1011.0 |
| 20260506125454 | 7 | 333 | 4.8 | 19.3 | 0.00 | 0.00 | 0.00 | 73 | 1011.1 |
| 20260506125330 | 7 | 355 | 8.0 | 19.3 | 0.00 | 0.00 | 0.00 | 73 | 1011.1 |
| 20260506125147 | 7 | 344 | 8.0 | 19.3 | 0.00 | 0.00 | 0.00 | 73 | 1011.0 |
| 20260506125027 | 7 | 355 | 9.7 | 20.9 | 0.00 | 0.00 | 0.00 | 72 | 1011.1 |
| 20260506124909 | 7 | 26 | 11.3 | 20.9 | 0.00 | 0.00 | 0.00 | 72 | 1011.1 |
| 20260506124748 | 7 | 31 | 8.0 | 20.9 | 0.00 | 0.00 | 0.00 | 72 | 1011.0 |
| 20260506124625 | 7 | 45 | 9.7 | 20.9 | 0.00 | 0.00 | 0.00 | 72 | 1011.0 |
| 20260506124506 | 7 | 346 | 9.7 | 20.9 | 0.00 | 0.00 | 0.00 | 72 | 1011.0 |
| 20260506124344 | 7 | 360 | 11.3 | 20.9 | 0.00 | 0.00 | 0.00 | 72 | 1010.9 |
| 20260506124221 | 7 | 329 | 8.0 | 16.1 | 0.00 | 0.00 | 0.00 | 72 | 1010.9 |
| 20260506124037 | 7 | 335 | 8.0 | 16.1 | 0.00 | 0.00 | 0.00 | 72 | 1010.9 |
| 20260506123857 | 7 | 27 | 8.0 | 16.1 | 0.00 | 0.00 | 0.00 | 72 | 1010.8 |
| 20260506123736 | 7 | 344 | 6.4 | 16.1 | 0.00 | 0.00 | 0.00 | 71 | 1010.9 |
| 20260506123615 | 7 | 355 | 6.4 | 16.1 | 0.00 | 0.00 | 0.00 | 71 | 1010.9 |
| 20260506123452 | 7 | 303 | 8.0 | 16.1 | 0.00 | 0.00 | 0.00 | 71 | 1010.8 |
| 20260506123329 | 7 | 343 | 9.7 | 16.1 | 0.00 | 0.00 | 0.00 | 71 | 1010.9 |
| 20260506123211 | 7 | 355 | 9.7 | 12.9 | 0.00 | 0.00 | 0.00 | 71 | 1010.8 |
| 20260506123049 | 7 | 342 | 8.0 | 12.9 | 0.00 | 0.00 | 0.00 | 71 | 1010.8 |
| 20260506122925 | 7 | 298 | 8.0 | 12.9 | 0.00 | 0.00 | 0.00 | 71 | 1010.7 |
| 20260506122804 | 7 | 329 | 6.4 | 12.9 | 0.00 | 0.00 | 0.00 | 71 | 1010.7 |
| 20260506122646 | 6 | 346 | 6.4 | 12.9 | 0.00 | 0.00 | 0.00 | 70 | 1010.6 |
| 20260506122523 | 6 | 343 | 4.8 | 12.9 | 0.00 | 0.00 | 0.00 | 70 | 1010.4 |
| 20260506122404 | 6 | 327 | 6.4 | 14.5 | 0.00 | 0.00 | 0.00 | 69 | 1010.5 |
| 20260506122240 | 6 | 5 | 8.0 | 14.5 | 0.00 | 0.00 | 0.00 | 69 | 1010.5 |
| 20260506122121 | 6 | 290 | 6.4 | 14.5 | 0.00 | 0.00 | 0.00 | 68 | 1010.6 |
| 20260506121959 | 6 | 319 | 8.0 | 14.5 | 0.00 | 0.00 | 0.00 | 68 | 1010.6 |
| 20260506121835 | 6 | 309 | 6.4 | 14.5 | 0.00 | 0.00 | 0.00 | 68 | 1010.5 |
| 20260506121713 | 6 | 315 | 8.0 | 14.5 | 0.00 | 0.00 | 0.00 | 68 | 1010.5 |
| 20260506121551 | 6 | 316 | 8.0 | 14.5 | 0.00 | 0.00 | 0.00 | 68 | 1010.5 |
| 20260506121433 | 6 | 342 | 8.0 | 14.5 | 0.00 | 0.00 | 0.00 | 68 | 1010.4 |
| 20260506121312 | 6 | 294 | 6.4 | 11.3 | 0.00 | 0.00 | 0.00 | 67 | 1010.4 |
| 20260506121151 | 6 | 293 | 4.8 | 11.3 | 0.00 | 0.00 | 0.00 | 68 | 1010.4 |
| 20260506121029 | 6 | 319 | 6.4 | 11.3 | 0.00 | 0.00 | 0.00 | 67 | 1010.4 |
| 20260506120910 | 6 | 298 | 6.4 | 11.3 | 0.00 | 0.00 | 0.00 | 67 | 1010.4 |
| 20260506120749 | 6 | 265 | 4.8 | 11.3 | 0.00 | 0.00 | 0.00 | 68 | 1010.4 |
| 20260506120606 | 6 | 338 | 4.8 | 11.3 | 0.00 | 0.00 | 0.00 | 68 | 1010.4 |
| 20260506120443 | 6 | 344 | 4.8 | 11.3 | 0.00 | 0.00 | 0.00 | 68 | 1010.4 |
| 20260506120307 | 6 | 337 | 4.8 | 11.3 | 0.00 | 0.00 | 0.00 | 68 | 1010.5 |
| 20260506120145 | 6 | 275 | 4.8 | 11.3 | 0.00 | 0.00 | 0.00 | 68 | 1010.5 |
| 20260506120022 | 6 | 315 | 6.4 | 11.3 | 0.00 | 0.00 | 0.00 | 68 | 1010.4 |
| 20260506115901 | 6 | 315 | 6.4 | 11.3 | 0.00 | 0.00 | 0.00 | 68 | 1010.3 |
| 20260506115744 | 6 | 292 | 6.4 | 9.7 | 0.00 | 0.00 | 0.00 | 68 | 1010.3 |
| 20260506115620 | 6 | 333 | 4.8 | 9.7 | 0.00 | 0.00 | 0.00 | 69 | 1010.3 |
| 20260506115458 | 6 | 315 | 4.8 | 9.7 | 0.00 | 0.00 | 0.00 | 68 | 1010.3 |
| 20260506115336 | 6 | 304 | 3.2 | 9.7 | 0.00 | 0.00 | 0.00 | 68 | 1010.2 |
| 20260506115151 | 6 | 320 | 6.4 | 11.3 | 0.00 | 0.00 | 0.00 | 68 | 1010.2 |
| 20260506115033 | 6 | 295 | 6.4 | 11.3 | 0.00 | 0.00 | 0.00 | 69 | 1010.1 |
| 20260506114852 | 6 | 294 | 3.2 | 11.3 | 0.00 | 0.00 | 0.00 | 69 | 1010.2 |
| 20260506114729 | 6 | 329 | 3.2 | 11.3 | 0.00 | 0.00 | 0.00 | 69 | 1010.2 |
| 20260506114606 | 6 | 292 | 6.4 | 11.3 | 0.00 | 0.00 | 0.00 | 69 | 1010.2 |
| 20260506114447 | 6 | 324 | 6.4 | 11.3 | 0.00 | 0.00 | 0.00 | 69 | 1010.1 |
| 20260506114328 | 6 | 307 | 3.2 | 9.7 | 0.00 | 0.00 | 0.00 | 69 | 1010.1 |
| 20260506114207 | 6 | 306 | 3.2 | 9.7 | 0.00 | 0.00 | 0.00 | 70 | 1010.1 |
| 20260506114024 | 6 | 307 | 4.8 | 9.7 | 0.00 | 0.00 | 0.00 | 70 | 1010.2 |
| 20260506113906 | 6 | 301 | 3.2 | 9.7 | 0.00 | 0.00 | 0.00 | 70 | 1010.1 |
| 20260506113744 | 5 | 300 | 3.2 | 9.7 | 0.00 | 0.00 | 0.00 | 70 | 1010.2 |
| 20260506113625 | 5 | 315 | 4.8 | 9.7 | 0.00 | 0.00 | 0.00 | 70 | 1010.2 |
| 20260506113503 | 5 | 313 | 3.2 | 9.7 | 0.00 | 0.00 | 0.00 | 70 | 1010.2 |
| 20260506113306 | 5 | 288 | 6.4 | 9.7 | 0.00 | 0.00 | 0.00 | 70 | 1010.1 |
| 20260506113144 | 5 | 296 | 6.4 | 9.7 | 0.00 | 0.00 | 0.00 | 70 | 1010.1 |
| 20260506113025 | 5 | 302 | 6.4 | 9.7 | 0.00 | 0.00 | 0.00 | 71 | 1010.0 |
| 20260506112904 | 5 | 285 | 4.8 | 9.7 | 0.00 | 0.00 | 0.00 | 71 | 1010.0 |
| 20260506112742 | 5 | 264 | 4.8 | 9.7 | 0.00 | 0.00 | 0.00 | 70 | 1009.9 |
| 20260506112624 | 5 | 280 | 3.2 | 8.0 | 0.00 | 0.00 | 0.00 | 71 | 1009.9 |
| 20260506112504 | 5 | 284 | 4.8 | 8.0 | 0.00 | 0.00 | 0.00 | 71 | 1009.9 |
| 20260506112343 | 5 | 292 | 4.8 | 8.0 | 0.00 | 0.00 | 0.00 | 71 | 1009.8 |
| 20260506112222 | 5 | 313 | 3.2 | 8.0 | 0.00 | 0.00 | 0.00 | 71 | 1009.8 |
| 20260506112103 | 5 | 306 | 3.2 | 6.4 | 0.00 | 0.00 | 0.00 | 71 | 1009.8 |
| 20260506111920 | 5 | 309 | 1.6 | 6.4 | 0.00 | 0.00 | 0.00 | 71 | 1009.9 |
| 20260506111759 | 5 | 295 | 0.0 | 0.0 | 0.00 | 0.00 | 0.00 | 71 | 1009.8 |
| 20260506111641 | 5 | 292 | 0.0 | 3.2 | 0.00 | 0.00 | 0.00 | 71 | 1009.8 |
| 20260506111506 | 5 | 292 | 0.0 | 3.2 | 0.00 | 0.00 | 0.00 | 71 | 1009.8 |
| 20260506111346 | 5 | 292 | 0.0 | 3.2 | 0.00 | 0.00 | 0.00 | 71 | 1009.8 |
| 20260506111203 | 5 | 292 | 0.0 | 3.2 | 0.00 | 0.00 | 0.00 | 71 | 1009.8 |
| 20260506111042 | 5 | 292 | 0.0 | 3.2 | 0.00 | 0.00 | 0.00 | 70 | 1009.9 |
| 20260506110923 | 5 | 292 | 0.0 | 3.2 | 0.00 | 0.00 | 0.00 | 70 | 1010.0 |
| 20260506110802 | 5 | 292 | 0.0 | 3.2 | 0.00 | 0.00 | 0.00 | 70 | 1009.9 |
| 20260506110642 | 5 | 292 | 0.0 | 1.6 | 0.00 | 0.00 | 0.00 | 70 | 1009.9 |
| 20260506110522 | 5 | 292 | 0.0 | 0.0 | 0.00 | 0.00 | 0.00 | 70 | 1009.8 |
| 20260506110401 | 5 | 292 | 0.0 | 0.0 | 0.00 | 0.00 | 0.00 | 70 | 1009.8 |
| 20260506110243 | 5 | 292 | 0.0 | 0.0 | 0.00 | 0.00 | 0.00 | 70 | 1009.8 |
| 20260506110122 | 5 | 292 | 0.0 | 0.0 | 0.00 | 0.00 | 0.00 | 70 | 1009.7 |
| 20260506110004 | 5 | 292 | 0.0 | 0.0 | 0.00 | 0.00 | 0.00 | 70 | 1009.8 |
| 20260506105841 | 5 | 292 | 0.0 | 0.0 | 0.00 | 0.00 | 0.00 | 70 | 1009.8 |
| 20260506105723 | 5 | 292 | 0.0 | 0.0 | 0.00 | 0.00 | 0.00 | 70 | 1009.7 |
| 20260506105602 | 5 | 292 | 0.0 | 0.0 | 0.00 | 0.00 | 0.00 | 70 | 1009.7 |
| 20260506105442 | 5 | 292 | 0.0 | 0.0 | 0.00 | 0.00 | 0.00 | 70 | 1009.7 |
| 20260506105322 | 5 | 292 | 0.0 | 0.0 | 0.00 | 0.00 | 0.00 | 70 | 1009.6 |
| 20260506105142 | 5 | 292 | 0.0 | 0.0 | 0.00 | 0.00 | 0.00 | 70 | 1009.6 |
| 20260506105001 | 5 | 292 | 0.0 | 0.0 | 0.00 | 0.00 | 0.00 | 70 | 1009.6 |
| 20260506104841 | 5 | 292 | 0.0 | 0.0 | 0.00 | 0.00 | 0.00 | 69 | 1009.6 |
| 20260506104718 | 5 | 292 | 0.0 | 0.0 | 0.00 | 0.00 | 0.00 | 69 | 1009.5 |
| 20260506104557 | 5 | 292 | 0.0 | 0.0 | 0.00 | 0.00 | 0.00 | 68 | 1009.5 |
| 20260506104438 | 5 | 292 | 0.0 | 0.0 | 0.00 | 0.00 | 0.00 | 68 | 1009.5 |
| 20260506104319 | 5 | 292 | 0.0 | 0.0 | 0.00 | 0.00 | 0.00 | 68 | 1009.5 |
| 20260506104157 | 5 | 292 | 0.0 | 0.0 | 0.00 | 0.00 | 0.00 | 68 | 1009.5 |
| 20260506104034 | 5 | 292 | 0.0 | 0.0 | 0.00 | 0.00 | 0.00 | 68 | 1009.4 |
| 20260506103859 | 5 | 292 | 0.0 | 0.0 | 0.00 | 0.00 | 0.00 | 68 | 1009.4 |
| 20260506103738 | 6 | 292 | 0.0 | 0.0 | 0.00 | 0.00 | 0.00 | 68 | 1009.4 |
| 20260506103618 | 6 | 292 | 0.0 | 0.0 | 0.00 | 0.00 | 0.00 | 68 | 1009.4 |
| 20260506103434 | 6 | 292 | 0.0 | 0.0 | 0.00 | 0.00 | 0.00 | 68 | 1009.4 |
| 20260506103316 | 6 | 292 | 0.0 | 0.0 | 0.00 | 0.00 | 0.00 | 67 | 1009.4 |
| 20260506103156 | 6 | 292 | 0.0 | 1.6 | 0.00 | 0.00 | 0.00 | 68 | 1009.3 |
| 20260506103035 | 6 | 292 | 0.0 | 3.2 | 0.00 | 0.00 | 0.00 | 67 | 1009.2 |
| 20260506102855 | 6 | 292 | 0.0 | 3.2 | 0.00 | 0.00 | 0.00 | 67 | 1009.3 |
| 20260506102738 | 6 | 292 | 0.0 | 3.2 | 0.00 | 0.00 | 0.00 | 67 | 1009.4 |
| 20260506102617 | 6 | 292 | 0.0 | 3.2 | 0.00 | 0.00 | 0.00 | 67 | 1009.4 |
| 20260506102453 | 6 | 292 | 0.0 | 3.2 | 0.00 | 0.00 | 0.00 | 67 | 1009.4 |
| 20260506102310 | 6 | 292 | 0.0 | 3.2 | 0.00 | 0.00 | 0.00 | 67 | 1009.3 |
| 20260506102128 | 6 | 291 | 0.0 | 0.0 | 0.00 | 0.00 | 0.00 | 67 | 1009.2 |
| 20260506102010 | 6 | 291 | 0.0 | 0.0 | 0.00 | 0.00 | 0.00 | 66 | 1009.2 |
| 20260506101850 | 6 | 291 | 0.0 | 1.6 | 0.00 | 0.00 | 0.00 | 66 | 1009.2 |
| 20260506101729 | 6 | 291 | 0.0 | 1.6 | 0.00 | 0.00 | 0.00 | 66 | 1009.3 |
| 20260506101607 | 6 | 291 | 0.0 | 1.6 | 0.00 | 0.00 | 0.00 | 66 | 1009.3 |
| 20260506101428 | 6 | 291 | 0.0 | 3.2 | 0.00 | 0.00 | 0.00 | 66 | 1009.3 |
| 20260506101308 | 6 | 291 | 0.0 | 3.2 | 0.00 | 0.00 | 0.00 | 66 | 1009.3 |
| 20260506101125 | 6 | 291 | 0.0 | 3.2 | 0.00 | 0.00 | 0.00 | 65 | 1009.4 |
| 20260506101003 | 6 | 291 | 0.0 | 3.2 | 0.00 | 0.00 | 0.00 | 65 | 1009.3 |
| 20260506100826 | 6 | 291 | 0.0 | 3.2 | 0.00 | 0.00 | 0.00 | 65 | 1009.3 |
| 20260506100705 | 6 | 291 | 0.0 | 3.2 | 0.00 | 0.00 | 0.00 | 65 | 1009.3 |
| 20260506100545 | 6 | 300 | 0.0 | 3.2 | 0.00 | 0.00 | 0.00 | 65 | 1009.2 |
| 20260506100402 | 6 | 301 | 0.0 | 4.8 | 0.00 | 0.00 | 0.00 | 65 | 1009.2 |
| 20260506100242 | 6 | 301 | 0.0 | 6.4 | 0.00 | 0.00 | 0.00 | 65 | 1009.3 |
| 20260506100059 | 6 | 301 | 0.0 | 6.4 | 0.00 | 0.00 | 0.00 | 65 | 1009.2 |
| 20260506095936 | 6 | 301 | 0.0 | 6.4 | 0.00 | 0.00 | 0.00 | 64 | 1009.2 |
| 20260506095814 | 6 | 300 | 1.6 | 6.4 | 0.00 | 0.00 | 0.00 | 64 | 1009.2 |
| 20260506095633 | 6 | 300 | 1.6 | 6.4 | 0.00 | 0.00 | 0.00 | 64 | 1009.2 |
| 20260506095454 | 6 | 305 | 3.2 | 8.0 | 0.00 | 0.00 | 0.00 | 64 | 1009.2 |
| 20260506095310 | 6 | 272 | 1.6 | 8.0 | 0.00 | 0.00 | 0.00 | 64 | 1009.3 |
| 20260506095151 | 6 | 286 | 1.6 | 8.0 | 0.00 | 0.00 | 0.00 | 65 | 1009.3 |
| 20260506095028 | 6 | 286 | 3.2 | 8.0 | 0.00 | 0.00 | 0.00 | 64 | 1009.2 |
| 20260506094911 | 6 | 285 | 3.2 | 8.0 | 0.00 | 0.00 | 0.00 | 64 | 1009.1 |
| 20260506094749 | 6 | 298 | 3.2 | 8.0 | 0.00 | 0.00 | 0.00 | 64 | 1009.1 |
| 20260506094626 | 6 | 300 | 4.8 | 8.0 | 0.00 | 0.00 | 0.00 | 64 | 1009.0 |
| 20260506094504 | 6 | 290 | 4.8 | 6.4 | 0.00 | 0.00 | 0.00 | 64 | 1008.9 |
| 20260506094346 | 6 | 298 | 4.8 | 6.4 | 0.00 | 0.00 | 0.00 | 64 | 1008.9 |
| 20260506094227 | 6 | 296 | 3.2 | 6.4 | 0.00 | 0.00 | 0.00 | 64 | 1008.8 |
| 20260506094109 | 6 | 306 | 4.8 | 6.4 | 0.00 | 0.00 | 0.00 | 64 | 1008.8 |
| 20260506093946 | 7 | 312 | 4.8 | 6.4 | 0.00 | 0.00 | 0.00 | 64 | 1008.8 |
| 20260506093825 | 7 | 294 | 3.2 | 6.4 | 0.00 | 0.00 | 0.00 | 64 | 1008.9 |
| 20260506093707 | 7 | 302 | 3.2 | 6.4 | 0.00 | 0.00 | 0.00 | 64 | 1008.8 |
| 20260506093546 | 7 | 300 | 3.2 | 6.4 | 0.00 | 0.00 | 0.00 | 64 | 1008.8 |
| 20260506093425 | 7 | 308 | 3.2 | 6.4 | 0.00 | 0.00 | 0.00 | 64 | 1008.7 |
| 20260506093307 | 7 | 294 | 3.2 | 6.4 | 0.00 | 0.00 | 0.00 | 64 | 1008.6 |
| 20260506093150 | 7 | 299 | 3.2 | 6.4 | 0.00 | 0.00 | 0.00 | 65 | 1008.5 |
| 20260506093027 | 7 | 314 | 1.6 | 4.8 | 0.00 | 0.00 | 0.00 | 65 | 1008.5 |
| 20260506092905 | 7 | 323 | 1.6 | 4.8 | 0.00 | 0.00 | 0.00 | 65 | 1008.5 |
| 20260506092744 | 7 | 326 | 1.6 | 4.8 | 0.00 | 0.00 | 0.00 | 65 | 1008.5 |
| 20260506092609 | 7 | 314 | 0.0 | 6.4 | 0.00 | 0.00 | 0.00 | 64 | 1008.6 |
| 20260506092425 | 7 | 314 | 0.0 | 6.4 | 0.00 | 0.00 | 0.00 | 64 | 1008.6 |
| 20260506092306 | 7 | 313 | 1.6 | 6.4 | 0.00 | 0.00 | 0.00 | 64 | 1008.6 |
| 20260506092141 | 7 | 328 | 1.6 | 8.0 | 0.00 | 0.00 | 0.00 | 64 | 1008.5 |
| 20260506092006 | 7 | 317 | 1.6 | 8.0 | 0.00 | 0.00 | 0.00 | 64 | 1008.5 |
| 20260506091845 | 7 | 327 | 1.6 | 8.0 | 0.00 | 0.00 | 0.00 | 64 | 1008.4 |
| 20260506091722 | 7 | 315 | 0.0 | 8.0 | 0.00 | 0.00 | 0.00 | 64 | 1008.4 |
| 20260506091600 | 7 | 301 | 1.6 | 8.0 | 0.00 | 0.00 | 0.00 | 64 | 1008.4 |
| 20260506091440 | 7 | 301 | 3.2 | 8.0 | 0.00 | 0.00 | 0.00 | 63 | 1008.4 |
| 20260506091318 | 7 | 345 | 6.4 | 8.0 | 0.00 | 0.00 | 0.00 | 63 | 1008.6 |
| 20260506091154 | 7 | 309 | 4.8 | 8.0 | 0.00 | 0.00 | 0.00 | 64 | 1008.6 |
| 20260506091031 | 7 | 302 | 3.2 | 8.0 | 0.00 | 0.00 | 0.00 | 64 | 1008.7 |
| 20260506090912 | 7 | 307 | 1.6 | 8.0 | 0.00 | 0.00 | 0.00 | 64 | 1008.7 |
| 20260506090754 | 7 | 304 | 4.8 | 8.0 | 0.00 | 0.00 | 0.00 | 64 | 1008.7 |
| 20260506090632 | 7 | 294 | 4.8 | 8.0 | 0.00 | 0.00 | 0.00 | 64 | 1008.7 |
| 20260506090511 | 7 | 295 | 1.6 | 8.0 | 0.00 | 0.00 | 0.00 | 64 | 1008.7 |
| 20260506090327 | 7 | 303 | 1.6 | 11.3 | 0.00 | 0.00 | 0.00 | 64 | 1008.6 |
| 20260506090209 | 7 | 301 | 3.2 | 11.3 | 0.00 | 0.00 | 0.00 | 64 | 1008.6 |
| 20260506090048 | 7 | 298 | 3.2 | 11.3 | 0.00 | 0.00 | 0.00 | 63 | 1008.5 |
| 20260506085906 | 7 | 306 | 1.6 | 11.3 | 0.00 | 0.00 | 0.00 | 63 | 1008.4 |
| 20260506085745 | 7 | 321 | 3.2 | 11.3 | 0.00 | 0.00 | 0.00 | 63 | 1008.5 |
| 20260506085626 | 7 | 330 | 6.4 | 11.3 | 0.00 | 0.00 | 0.00 | 63 | 1008.5 |
| 20260506085502 | 7 | 292 | 8.0 | 11.3 | 0.00 | 0.00 | 0.00 | 63 | 1008.5 |
| 20260506085340 | 7 | 324 | 4.8 | 12.9 | 0.00 | 0.00 | 0.00 | 63 | 1008.6 |
| 20260506085157 | 7 | 342 | 3.2 | 12.9 | 0.00 | 0.00 | 0.00 | 63 | 1008.6 |
| 20260506085033 | 7 | 298 | 4.8 | 12.9 | 0.00 | 0.00 | 0.00 | 63 | 1008.6 |
| 20260506084915 | 7 | 304 | 4.8 | 12.9 | 0.00 | 0.00 | 0.00 | 63 | 1008.5 |
| 20260506084752 | 7 | 312 | 4.8 | 12.9 | 0.00 | 0.00 | 0.00 | 63 | 1008.5 |
| 20260506084629 | 7 | 305 | 6.4 | 12.9 | 0.00 | 0.00 | 0.00 | 63 | 1008.5 |
| 20260506084506 | 7 | 327 | 4.8 | 12.9 | 0.00 | 0.00 | 0.00 | 64 | 1008.5 |
| 20260506084347 | 7 | 304 | 4.8 | 9.7 | 0.00 | 0.00 | 0.00 | 64 | 1008.6 |
| 20260506084229 | 7 | 292 | 4.8 | 9.7 | 0.00 | 0.00 | 0.00 | 64 | 1008.5 |
| 20260506084109 | 7 | 300 | 3.2 | 8.0 | 0.00 | 0.00 | 0.00 | 64 | 1008.4 |
| 20260506083946 | 7 | 321 | 3.2 | 8.0 | 0.00 | 0.00 | 0.00 | 63 | 1008.4 |
| 20260506083828 | 7 | 335 | 4.8 | 8.0 | 0.00 | 0.00 | 0.00 | 63 | 1008.3 |
| 20260506083706 | 7 | 289 | 4.8 | 8.0 | 0.00 | 0.00 | 0.00 | 63 | 1008.4 |
| 20260506083543 | 7 | 322 | 3.2 | 8.0 | 0.00 | 0.00 | 0.00 | 64 | 1008.3 |
| 20260506083421 | 7 | 335 | 3.2 | 9.7 | 0.00 | 0.00 | 0.00 | 64 | 1008.3 |
| 20260506083300 | 7 | 306 | 3.2 | 9.7 | 0.00 | 0.00 | 0.00 | 64 | 1008.4 |
| 20260506083142 | 7 | 316 | 1.6 | 9.7 | 0.00 | 0.00 | 0.00 | 64 | 1008.4 |
| 20260506083020 | 7 | 311 | 3.2 | 9.7 | 0.00 | 0.00 | 0.00 | 63 | 1008.3 |
| 20260506082857 | 7 | 315 | 4.8 | 9.7 | 0.00 | 0.00 | 0.00 | 63 | 1008.3 |
| 20260506082736 | 7 | 308 | 4.8 | 11.3 | 0.00 | 0.00 | 0.00 | 63 | 1008.4 |
| 20260506082617 | 7 | 344 | 4.8 | 11.3 | 0.00 | 0.00 | 0.00 | 63 | 1008.5 |
| 20260506082455 | 7 | 325 | 4.8 | 11.3 | 0.00 | 0.00 | 0.00 | 64 | 1008.5 |
| 20260506082312 | 7 | 301 | 4.8 | 11.3 | 0.00 | 0.00 | 0.00 | 63 | 1008.5 |
| 20260506082151 | 7 | 323 | 4.8 | 11.3 | 0.00 | 0.00 | 0.00 | 64 | 1008.4 |
| 20260506082031 | 7 | 305 | 4.8 | 11.3 | 0.00 | 0.00 | 0.00 | 64 | 1008.4 |
| 20260506081908 | 7 | 327 | 4.8 | 11.3 | 0.00 | 0.00 | 0.00 | 64 | 1008.4 |
| 20260506081746 | 7 | 301 | 3.2 | 9.7 | 0.00 | 0.00 | 0.00 | 64 | 1008.4 |
| 20260506081623 | 7 | 321 | 4.8 | 9.7 | 0.00 | 0.00 | 0.00 | 63 | 1008.5 |
| 20260506081459 | 7 | 326 | 4.8 | 9.7 | 0.00 | 0.00 | 0.00 | 64 | 1008.5 |
| 20260506081340 | 7 | 317 | 3.2 | 8.0 | 0.00 | 0.00 | 0.00 | 64 | 1008.6 |
| 20260506081218 | 7 | 305 | 3.2 | 8.0 | 0.00 | 0.00 | 0.00 | 63 | 1008.6 |
| 20260506081056 | 7 | 306 | 4.8 | 8.0 | 0.00 | 0.00 | 0.00 | 63 | 1008.5 |
| 20260506080938 | 7 | 329 | 3.2 | 8.0 | 0.00 | 0.00 | 0.00 | 63 | 1008.5 |
| 20260506080819 | 7 | 290 | 3.2 | 8.0 | 0.00 | 0.00 | 0.00 | 63 | 1008.5 |
| 20260506080701 | 7 | 320 | 3.2 | 8.0 | 0.00 | 0.00 | 0.00 | 63 | 1008.5 |
| 20260506080542 | 7 | 288 | 4.8 | 8.0 | 0.00 | 0.00 | 0.00 | 63 | 1008.6 |
| 20260506080400 | 7 | 315 | 4.8 | 8.0 | 0.00 | 0.00 | 0.00 | 63 | 1008.6 |
| 20260506080243 | 7 | 303 | 4.8 | 8.0 | 0.00 | 0.00 | 0.00 | 63 | 1008.6 |
| 20260506080121 | 7 | 311 | 4.8 | 8.0 | 0.00 | 0.00 | 0.00 | 63 | 1008.5 |
| 20260506073431 | 7 | 298 | 3.2 | 8.0 | 0.00 | 0.00 | 0.00 | 62 | 1008.5 |
| 20260506073252 | 7 | 319 | 3.2 | 8.0 | 0.00 | 0.00 | 0.00 | 61 | 1008.5 |
| 20260506073130 | 7 | 305 | 3.2 | 8.0 | 0.00 | 0.00 | 0.00 | 61 | 1008.6 |
| 20260506073008 | 7 | 303 | 3.2 | 8.0 | 0.00 | 0.00 | 0.00 | 61 | 1008.5 |
| 20260506072846 | 7 | 300 | 4.8 | 8.0 | 0.00 | 0.00 | 0.00 | 61 | 1008.6 |
| 20260506072726 | 7 | 303 | 4.8 | 8.0 | 0.00 | 0.00 | 0.00 | 61 | 1008.5 |
| 20260506072548 | 7 | 298 | 3.2 | 8.0 | 0.00 | 0.00 | 0.00 | 61 | 1008.5 |
| 20260506072404 | 7 | 308 | 3.2 | 8.0 | 0.00 | 0.00 | 0.00 | 61 | 1008.5 |
| 20260506072241 | 7 | 304 | 4.8 | 9.7 | 0.00 | 0.00 | 0.00 | 61 | 1008.5 |
| 20260506072122 | 7 | 302 | 4.8 | 9.7 | 0.00 | 0.00 | 0.00 | 61 | 1008.5 |
| 20260506072004 | 7 | 310 | 3.2 | 9.7 | 0.00 | 0.00 | 0.00 | 61 | 1008.5 |
| 20260506071822 | 7 | 302 | 3.2 | 9.7 | 0.00 | 0.00 | 0.00 | 61 | 1008.4 |
| 20260506071659 | 7 | 323 | 4.8 | 9.7 | 0.00 | 0.00 | 0.00 | 61 | 1008.4 |
| 20260506071537 | 7 | 311 | 4.8 | 9.7 | 0.00 | 0.00 | 0.00 | 60 | 1008.4 |
| 20260506071419 | 7 | 313 | 4.8 | 9.7 | 0.00 | 0.00 | 0.00 | 61 | 1008.5 |
| 20260506071257 | 8 | 313 | 4.8 | 8.0 | 0.00 | 0.00 | 0.00 | 61 | 1008.5 |
| 20260506071137 | 8 | 279 | 3.2 | 8.0 | 0.00 | 0.00 | 0.00 | 61 | 1008.5 |
| 20260506071016 | 8 | 308 | 3.2 | 8.0 | 0.00 | 0.00 | 0.00 | 61 | 1008.5 |
| 20260506070853 | 8 | 314 | 3.2 | 8.0 | 0.00 | 0.00 | 0.00 | 61 | 1008.6 |
| 20260506070734 | 8 | 311 | 3.2 | 9.7 | 0.00 | 0.00 | 0.00 | 61 | 1008.5 |
| 20260506070610 | 8 | 311 | 3.2 | 9.7 | 0.00 | 0.00 | 0.00 | 61 | 1008.5 |
| 20260506070449 | 8 | 307 | 4.8 | 9.7 | 0.00 | 0.00 | 0.00 | 60 | 1008.5 |
| 20260506070329 | 8 | 296 | 3.2 | 9.7 | 0.00 | 0.00 | 0.00 | 61 | 1008.5 |
| 20260506070211 | 8 | 326 | 4.8 | 9.7 | 0.00 | 0.00 | 0.00 | 60 | 1008.4 |
| 20260506062449 | 8 | 300 | 4.8 | 8.0 | 0.00 | 0.00 | 0.00 | 60 | 1008.4 |
| 20260506062306 | 8 | 301 | 3.2 | 8.0 | 0.00 | 0.00 | 0.00 | 60 | 1008.4 |
| 20260506062145 | 8 | 309 | 1.6 | 9.7 | 0.00 | 0.00 | 0.00 | 60 | 1008.5 |
| 20260506062026 | 8 | 323 | 1.6 | 9.7 | 0.00 | 0.00 | 0.00 | 59 | 1008.5 |
| 20260506061907 | 8 | 304 | 3.2 | 9.7 | 0.00 | 0.00 | 0.00 | 59 | 1008.6 |
| 20260506061746 | 8 | 299 | 6.4 | 9.7 | 0.00 | 0.00 | 0.00 | 59 | 1008.6 |
| 20260506061626 | 8 | 298 | 4.8 | 9.7 | 0.00 | 0.00 | 0.00 | 59 | 1008.7 |
| 20260506061504 | 8 | 305 | 3.2 | 9.7 | 0.00 | 0.00 | 0.00 | 59 | 1008.7 |
| 20260506061345 | 8 | 290 | 4.8 | 9.7 | 0.00 | 0.00 | 0.00 | 59 | 1008.8 |
| 20260506061222 | 8 | 298 | 4.8 | 9.7 | 0.00 | 0.00 | 0.00 | 59 | 1008.8 |
| 20260506061101 | 8 | 323 | 6.4 | 9.7 | 0.00 | 0.00 | 0.00 | 59 | 1008.7 |
| 20260506060919 | 8 | 294 | 6.4 | 9.7 | 0.00 | 0.00 | 0.00 | 59 | 1008.7 |
| 20260506060743 | 8 | 301 | 4.8 | 11.3 | 0.00 | 0.00 | 0.00 | 60 | 1008.7 |
| 20260506060625 | 8 | 307 | 3.2 | 11.3 | 0.00 | 0.00 | 0.00 | 59 | 1008.7 |
| 20260506060503 | 8 | 312 | 4.8 | 11.3 | 0.00 | 0.00 | 0.00 | 59 | 1008.7 |
| 20260506060340 | 8 | 293 | 4.8 | 11.3 | 0.00 | 0.00 | 0.00 | 59 | 1008.7 |
| 20260506060201 | 8 | 306 | 4.8 | 11.3 | 0.00 | 0.00 | 0.00 | 59 | 1008.8 |
| 20260506060112 | 8 | 306 | 6.4 | 11.3 | 0.00 | 0.00 | 0.00 | 59 | 1008.9 |
| 20260506051355 | 8 | 306 | 3.2 | 8.0 | 0.00 | 0.00 | 0.00 | 60 | 1008.4 |
| 20260506051255 | 8 | 297 | 4.8 | 8.0 | 0.00 | 0.00 | 0.00 | 60 | 1008.4 |
| 20260506051140 | 8 | 285 | 4.8 | 8.0 | 0.00 | 0.00 | 0.00 | 60 | 1008.4 |
| 20260506051042 | 8 | 300 | 4.8 | 8.0 | 0.00 | 0.00 | 0.00 | 59 | 1008.4 |
| 20260506050923 | 8 | 287 | 4.8 | 8.0 | 0.00 | 0.00 | 0.00 | 59 | 1008.3 |
| 20260506050825 | 8 | 291 | 3.2 | 9.7 | 0.00 | 0.00 | 0.00 | 59 | 1008.3 |
| 20260506050727 | 8 | 284 | 1.6 | 9.7 | 0.00 | 0.00 | 0.00 | 59 | 1008.3 |
| 20260506050629 | 8 | 302 | 3.2 | 9.7 | 0.00 | 0.00 | 0.00 | 59 | 1008.4 |
| 20260506050530 | 8 | 296 | 3.2 | 9.7 | 0.00 | 0.00 | 0.00 | 59 | 1008.4 |
| 20260506050436 | 8 | 281 | 3.2 | 9.7 | 0.00 | 0.00 | 0.00 | 59 | 1008.4 |
| 20260506050358 | 8 | 292 | 3.2 | 9.7 | 0.00 | 0.00 | 0.00 | 59 | 1008.4 |
| 20260506050259 | 8 | 317 | 4.8 | 9.7 | 0.00 | 0.00 | 0.00 | 59 | 1008.4 |
| 20260506050120 | 8 | 300 | 4.8 | 11.3 | 0.00 | 0.00 | 0.00 | 59 | 1008.4 |
| 20260506045026 | 8 | 309 | 4.8 | 11.3 | 0.00 | 0.00 | 0.00 | 59 | 1008.6 |
| 20260506044929 | 8 | 284 | 6.4 | 12.9 | 0.00 | 0.00 | 0.00 | 59 | 1008.6 |
| 20260506044851 | 8 | 288 | 6.4 | 12.9 | 0.00 | 0.00 | 0.00 | 59 | 1008.6 |
| 20260506044732 | 8 | 278 | 4.8 | 12.9 | 0.00 | 0.00 | 0.00 | 59 | 1008.6 |
| 20260506044654 | 8 | 291 | 6.4 | 12.9 | 0.00 | 0.00 | 0.00 | 59 | 1008.5 |
| 20260506044536 | 8 | 279 | 6.4 | 12.9 | 0.00 | 0.00 | 0.00 | 59 | 1008.5 |
| 20260506044436 | 8 | 285 | 6.4 | 12.9 | 0.00 | 0.08 | 0.00 | 59 | 1008.5 |
| 20260506044322 | 8 | 285 | 8.0 | 12.9 | 0.00 | 0.08 | 0.00 | 59 | 1008.5 |
| 20260506044223 | 8 | 302 | 8.0 | 12.9 | 0.00 | 0.08 | 0.00 | 59 | 1008.5 |
| 20260506044145 | 8 | 284 | 6.4 | 12.9 | 0.00 | 0.08 | 0.00 | 59 | 1008.5 |
| 20260506044026 | 8 | 300 | 4.8 | 11.3 | 0.00 | 0.08 | 0.00 | 59 | 1008.6 |
| 20260506043929 | 8 | 292 | 4.8 | 11.3 | 0.00 | 0.08 | 0.00 | 59 | 1008.6 |
| 20260506043830 | 8 | 283 | 4.8 | 11.3 | 0.00 | 0.08 | 0.00 | 59 | 1008.6 |
| 20260506043731 | 8 | 262 | 4.8 | 11.3 | 0.00 | 0.08 | 0.00 | 59 | 1008.6 |
| 20260506043637 | 8 | 292 | 6.4 | 11.3 | 0.00 | 0.08 | 0.00 | 59 | 1008.6 |
| 20260506043559 | 8 | 287 | 6.4 | 9.7 | 0.00 | 0.08 | 0.00 | 59 | 1008.6 |
| 20260506043500 | 8 | 290 | 6.4 | 9.7 | 0.00 | 0.08 | 0.00 | 59 | 1008.6 |
| 20260506043341 | 8 | 263 | 6.4 | 9.7 | 0.00 | 0.08 | 0.00 | 59 | 1008.6 |
| 20260506043221 | 8 | 315 | 4.8 | 9.7 | 0.00 | 0.08 | 0.00 | 59 | 1008.6 |
| 20260506043123 | 8 | 313 | 4.8 | 9.7 | 0.00 | 0.08 | 0.00 | 59 | 1008.6 |
| 20260506043025 | 8 | 284 | 4.8 | 9.7 | 0.00 | 0.08 | 0.00 | 59 | 1008.6 |
| 20260506042930 | 8 | 285 | 4.8 | 9.7 | 0.00 | 0.08 | 0.00 | 59 | 1008.6 |
| 20260506042832 | 8 | 287 | 4.8 | 9.7 | 0.00 | 0.08 | 0.00 | 59 | 1008.5 |
| 20260506042734 | 8 | 294 | 6.4 | 9.7 | 0.00 | 0.08 | 0.00 | 59 | 1008.5 |
| 20260506042635 | 8 | 292 | 6.4 | 9.7 | 0.00 | 0.08 | 0.00 | 59 | 1008.5 |
| 20260506042537 | 8 | 281 | 3.2 | 8.0 | 0.00 | 0.08 | 0.00 | 59 | 1008.4 |
| 20260506042438 | 8 | 304 | 4.8 | 8.0 | 0.00 | 0.08 | 0.00 | 59 | 1008.4 |
| 20260506042324 | 8 | 286 | 4.8 | 9.7 | 0.00 | 0.08 | 0.00 | 59 | 1008.3 |
| 20260506042225 | 8 | 296 | 4.8 | 9.7 | 0.00 | 0.08 | 0.00 | 59 | 1008.3 |
| 20260506042128 | 8 | 286 | 3.2 | 9.7 | 0.00 | 0.08 | 0.00 | 59 | 1008.3 |
| 20260506042029 | 8 | 282 | 3.2 | 9.7 | 0.00 | 0.08 | 0.00 | 60 | 1008.3 |
| 20260506041931 | 8 | 302 | 3.2 | 9.7 | 0.00 | 0.08 | 0.00 | 60 | 1008.3 |
| 20260506041833 | 8 | 294 | 4.8 | 9.7 | 0.00 | 0.08 | 0.00 | 59 | 1008.3 |
| 20260506041755 | 8 | 290 | 4.8 | 9.7 | 0.00 | 0.08 | 0.00 | 59 | 1008.3 |
| 20260506041635 | 8 | 284 | 4.8 | 9.7 | 0.00 | 0.08 | 0.00 | 60 | 1008.3 |
| 20260506041522 | 8 | 293 | 3.2 | 9.7 | 0.00 | 0.08 | 0.00 | 59 | 1008.3 |
| 20260506041424 | 8 | 297 | 4.8 | 9.7 | 0.00 | 0.08 | 0.00 | 59 | 1008.4 |
| 20260506041325 | 8 | 309 | 6.4 | 11.3 | 0.00 | 0.08 | 0.00 | 59 | 1008.4 |
| 20260506041228 | 8 | 288 | 4.8 | 11.3 | 0.00 | 0.08 | 0.00 | 60 | 1008.3 |
| 20260506041130 | 8 | 292 | 4.8 | 11.3 | 0.00 | 0.08 | 0.00 | 59 | 1008.3 |
| 20260506041032 | 8 | 302 | 4.8 | 11.3 | 0.00 | 0.08 | 0.00 | 60 | 1008.3 |
| 20260506040959 | 8 | 293 | 3.2 | 11.3 | 0.00 | 0.08 | 0.00 | 59 | 1008.3 |
| 20260506040839 | 8 | 298 | 3.2 | 11.3 | 0.00 | 0.08 | 0.00 | 59 | 1008.3 |
| 20260506040722 | 8 | 296 | 4.8 | 11.3 | 0.00 | 0.08 | 0.00 | 59 | 1008.3 |
| 20260506040644 | 8 | 312 | 6.4 | 11.3 | 0.00 | 0.08 | 0.00 | 60 | 1008.3 |
| 20260506040525 | 8 | 302 | 4.8 | 11.3 | 0.00 | 0.08 | 0.00 | 60 | 1008.3 |
| 20260506040448 | 8 | 303 | 4.8 | 8.0 | 0.00 | 0.08 | 0.00 | 60 | 1008.3 |
| 20260506040327 | 8 | 293 | 4.8 | 8.0 | 0.00 | 0.08 | 0.00 | 60 | 1008.3 |
| 20260506040233 | 8 | 302 | 4.8 | 8.0 | 0.00 | 0.08 | 0.00 | 60 | 1008.3 |
| 20260506040135 | 8 | 294 | 4.8 | 8.0 | 0.00 | 0.08 | 0.00 | 60 | 1008.3 |
| 20260506040056 | 8 | 301 | 3.2 | 8.0 | 0.00 | 0.08 | 0.00 | 60 | 1008.3 |
| 20260506035959 | 8 | 293 | 1.6 | 8.0 | 0.00 | 0.08 | 0.00 | 60 | 1008.3 |
| 20260506035837 | 8 | 306 | 3.2 | 8.0 | 0.00 | 0.08 | 0.00 | 60 | 1008.3 |
| 20260506035716 | 8 | 298 | 3.2 | 8.0 | 0.00 | 0.08 | 0.00 | 60 | 1008.4 |
| 20260506035558 | 8 | 287 | 4.8 | 8.0 | 0.00 | 0.08 | 0.00 | 60 | 1008.4 |
| 20260506035418 | 8 | 290 | 3.2 | 8.0 | 0.00 | 0.08 | 0.00 | 60 | 1008.4 |
| 20260506035257 | 8 | 282 | 3.2 | 8.0 | 0.00 | 0.08 | 0.00 | 60 | 1008.4 |
| 20260506035136 | 8 | 302 | 4.8 | 8.0 | 0.00 | 0.08 | 0.00 | 60 | 1008.4 |
| 20260506035015 | 8 | 304 | 3.2 | 8.0 | 0.00 | 0.08 | 0.00 | 60 | 1008.3 |
| 20260506034856 | 8 | 309 | 1.6 | 6.4 | 0.00 | 0.08 | 0.00 | 60 | 1008.3 |
| 20260506034733 | 8 | 302 | 1.6 | 6.4 | 0.00 | 0.08 | 0.00 | 59 | 1008.3 |
| 20260506034611 | 8 | 308 | 3.2 | 6.4 | 0.00 | 0.08 | 0.00 | 60 | 1008.2 |
| 20260506034427 | 8 | 311 | 3.2 | 6.4 | 0.00 | 0.08 | 0.08 | 59 | 1008.3 |
| 20260506034308 | 8 | 277 | 3.2 | 6.4 | 0.00 | 0.08 | 0.08 | 59 | 1008.3 |
| 20260506034125 | 8 | 296 | 3.2 | 6.4 | 0.00 | 0.08 | 0.08 | 59 | 1008.3 |
| 20260506034002 | 8 | 288 | 1.6 | 6.4 | 0.00 | 0.08 | 0.08 | 59 | 1008.2 |
| 20260506033839 | 8 | 292 | 3.2 | 6.4 | 0.00 | 0.08 | 0.08 | 59 | 1008.3 |
| 20260506033720 | 8 | 298 | 3.2 | 6.4 | 0.00 | 0.08 | 0.08 | 59 | 1008.3 |
| 20260506033558 | 8 | 280 | 3.2 | 8.0 | 0.00 | 0.08 | 0.08 | 59 | 1008.4 |
| 20260506033434 | 8 | 284 | 3.2 | 8.0 | 0.00 | 0.08 | 0.08 | 59 | 1008.4 |
| 20260506033311 | 8 | 286 | 3.2 | 8.0 | 0.00 | 0.08 | 0.08 | 59 | 1008.4 |
| 20260506033148 | 9 | 290 | 4.8 | 8.0 | 0.00 | 0.08 | 0.08 | 59 | 1008.3 |
| 20260506033031 | 9 | 285 | 3.2 | 8.0 | 0.00 | 0.08 | 0.08 | 59 | 1008.4 |
| 20260506032912 | 9 | 275 | 3.2 | 8.0 | 0.00 | 0.08 | 0.08 | 59 | 1008.4 |
| 20260506032753 | 9 | 281 | 3.2 | 8.0 | 0.00 | 0.08 | 0.08 | 59 | 1008.4 |
| 20260506032632 | 9 | 287 | 0.0 | 6.4 | 0.00 | 0.08 | 0.08 | 59 | 1008.3 |
| 20260506032513 | 9 | 289 | 1.6 | 6.4 | 0.00 | 0.08 | 0.08 | 59 | 1008.3 |
| 20260506032351 | 9 | 286 | 1.6 | 6.4 | 0.00 | 0.08 | 0.08 | 59 | 1008.3 |
| 20260506032231 | 9 | 278 | 0.0 | 4.8 | 0.00 | 0.08 | 0.08 | 59 | 1008.3 |
| 20260506032113 | 9 | 278 | 0.0 | 4.8 | 0.00 | 0.08 | 0.08 | 59 | 1008.2 |
| 20260506031956 | 9 | 278 | 0.0 | 4.8 | 0.00 | 0.08 | 0.08 | 59 | 1008.2 |
| 20260506031833 | 9 | 278 | 0.0 | 6.4 | 0.00 | 0.08 | 0.08 | 59 | 1008.2 |
| 20260506031710 | 9 | 278 | 0.0 | 6.4 | 0.00 | 0.08 | 0.08 | 59 | 1008.3 |
| 20260506031526 | 9 | 278 | 1.6 | 6.4 | 0.00 | 0.08 | 0.08 | 59 | 1008.3 |
| 20260506031404 | 9 | 278 | 3.2 | 6.4 | 0.00 | 0.08 | 0.08 | 58 | 1008.3 |
| 20260506031245 | 9 | 296 | 3.2 | 6.4 | 0.00 | 0.08 | 0.08 | 58 | 1008.3 |
| 20260506031124 | 9 | 267 | 3.2 | 6.4 | 0.00 | 0.08 | 0.08 | 58 | 1008.4 |
| 20260506030940 | 9 | 283 | 3.2 | 8.0 | 0.00 | 0.08 | 0.08 | 58 | 1008.4 |
| 20260506030820 | 9 | 298 | 3.2 | 8.0 | 0.00 | 0.08 | 0.08 | 58 | 1008.4 |
| 20260506030703 | 9 | 295 | 3.2 | 8.0 | 0.00 | 0.08 | 0.08 | 58 | 1008.4 |
| 20260506030540 | 9 | 266 | 3.2 | 8.0 | 0.00 | 0.08 | 0.08 | 58 | 1008.3 |
| 20260506030418 | 9 | 293 | 3.2 | 8.0 | 0.00 | 0.08 | 0.08 | 58 | 1008.3 |
| 20260506030255 | 9 | 263 | 3.2 | 8.0 | 0.00 | 0.08 | 0.08 | 58 | 1008.3 |
| 20260506030138 | 9 | 273 | 4.8 | 8.0 | 0.00 | 0.08 | 0.08 | 58 | 1008.4 |
| 20260506030015 | 9 | 292 | 4.8 | 8.0 | 0.00 | 0.08 | 0.08 | 58 | 1008.5 |
| 20260506025852 | 9 | 281 | 3.2 | 8.0 | 0.00 | 0.08 | 0.08 | 58 | 1008.5 |
| 20260506025733 | 9 | 278 | 1.6 | 4.8 | 0.00 | 0.08 | 0.08 | 58 | 1008.5 |
| 20260506025613 | 9 | 280 | 1.6 | 4.8 | 0.00 | 0.08 | 0.08 | 58 | 1008.4 |
| 20260506025432 | 9 | 280 | 1.6 | 4.8 | 0.00 | 0.08 | 0.08 | 58 | 1008.4 |
| 20260506025312 | 9 | 280 | 0.0 | 4.8 | 0.00 | 0.08 | 0.08 | 58 | 1008.3 |
| 20260506025149 | 9 | 280 | 0.0 | 4.8 | 0.00 | 0.08 | 0.08 | 58 | 1008.3 |
| 20260506025030 | 9 | 280 | 1.6 | 4.8 | 0.00 | 0.08 | 0.08 | 58 | 1008.4 |
| 20260506024912 | 9 | 288 | 1.6 | 4.8 | 0.00 | 0.08 | 0.08 | 57 | 1008.4 |
| 20260506024752 | 9 | 285 | 0.0 | 6.4 | 0.00 | 0.08 | 0.08 | 57 | 1008.3 |
| 20260506024629 | 9 | 285 | 1.6 | 6.4 | 0.00 | 0.08 | 0.08 | 58 | 1008.3 |
| 20260506024509 | 9 | 284 | 1.6 | 6.4 | 0.00 | 0.08 | 0.08 | 57 | 1008.3 |
| 20260506024350 | 9 | 284 | 1.6 | 6.4 | 0.00 | 0.08 | 0.08 | 57 | 1008.3 |
| 20260506024227 | 9 | 260 | 0.0 | 6.4 | 0.00 | 0.08 | 0.08 | 57 | 1008.3 |
| 20260506024105 | 9 | 273 | 1.6 | 6.4 | 0.00 | 0.08 | 0.08 | 57 | 1008.3 |
| 20260506023946 | 9 | 280 | 1.6 | 6.4 | 0.00 | 0.08 | 0.08 | 57 | 1008.3 |
| 20260506023823 | 9 | 286 | 1.6 | 4.8 | 0.00 | 0.08 | 0.08 | 57 | 1008.2 |
| 20260506023644 | 9 | 282 | 1.6 | 4.8 | 0.00 | 0.08 | 0.08 | 57 | 1008.2 |
| 20260506023521 | 9 | 282 | 0.0 | 4.8 | 0.00 | 0.08 | 0.08 | 57 | 1008.2 |
| 20260506023359 | 9 | 257 | 0.0 | 4.8 | 0.00 | 0.08 | 0.08 | 57 | 1008.2 |
| 20260506023236 | 9 | 272 | 1.6 | 8.0 | 0.00 | 0.08 | 0.08 | 57 | 1008.3 |
| 20260506023055 | 9 | 271 | 1.6 | 8.0 | 0.00 | 0.08 | 0.08 | 56 | 1008.3 |
| 20260506022932 | 9 | 271 | 0.0 | 8.0 | 0.00 | 0.08 | 0.08 | 56 | 1008.3 |
| 20260506022751 | 9 | 271 | 1.6 | 8.0 | 0.00 | 0.08 | 0.08 | 56 | 1008.2 |
| 20260506022630 | 9 | 271 | 1.6 | 8.0 | 0.00 | 0.08 | 0.08 | 56 | 1008.3 |
| 20260506022512 | 9 | 281 | 3.2 | 8.0 | 0.00 | 0.08 | 0.08 | 56 | 1008.3 |
| 20260506022350 | 9 | 279 | 4.8 | 8.0 | 0.00 | 0.08 | 0.08 | 56 | 1008.3 |
| 20260506022229 | 9 | 267 | 1.6 | 8.0 | 0.00 | 0.08 | 0.08 | 56 | 1008.3 |
| 20260506022110 | 9 | 293 | 1.6 | 8.0 | 0.00 | 0.08 | 0.08 | 56 | 1008.3 |
| 20260506021950 | 9 | 264 | 3.2 | 8.0 | 0.00 | 0.08 | 0.08 | 56 | 1008.4 |
| 20260506021809 | 9 | 272 | 3.2 | 8.0 | 0.00 | 0.08 | 0.08 | 56 | 1008.3 |
| 20260506021649 | 9 | 296 | 4.8 | 8.0 | 0.00 | 0.08 | 0.08 | 55 | 1008.3 |
| 20260506021526 | 9 | 261 | 4.8 | 8.0 | 0.00 | 0.08 | 0.08 | 55 | 1008.3 |
| 20260506021404 | 9 | 284 | 4.8 | 8.0 | 0.00 | 0.08 | 0.08 | 55 | 1008.3 |
| 20260506021246 | 9 | 305 | 4.8 | 8.0 | 0.00 | 0.08 | 0.08 | 55 | 1008.2 |
| 20260506021124 | 9 | 286 | 4.8 | 8.0 | 0.00 | 0.08 | 0.08 | 55 | 1008.1 |
| 20260506021001 | 9 | 284 | 3.2 | 8.0 | 0.00 | 0.08 | 0.08 | 55 | 1008.1 |
| 20260506020840 | 9 | 266 | 0.0 | 6.4 | 0.00 | 0.08 | 0.08 | 55 | 1008.1 |
| 20260506020722 | 9 | 285 | 0.0 | 6.4 | 0.00 | 0.08 | 0.08 | 55 | 1008.1 |
| 20260506020601 | 9 | 285 | 0.0 | 8.0 | 0.00 | 0.08 | 0.08 | 55 | 1008.1 |
| 20260506020440 | 9 | 285 | 0.0 | 8.0 | 0.00 | 0.08 | 0.08 | 55 | 1008.0 |
| 20260506020319 | 9 | 286 | 1.6 | 8.0 | 0.00 | 0.08 | 0.08 | 55 | 1008.0 |
| 20260506020157 | 9 | 287 | 3.2 | 8.0 | 0.00 | 0.08 | 0.08 | 55 | 1008.1 |
| 20260506020038 | 9 | 285 | 1.6 | 8.0 | 0.00 | 0.08 | 0.08 | 55 | 1008.1 |
| 20260506015916 | 9 | 304 | 3.2 | 8.0 | 0.00 | 0.08 | 0.08 | 54 | 1008.1 |
| 20260506015732 | 9 | 296 | 1.6 | 8.0 | 0.00 | 0.08 | 0.08 | 54 | 1008.1 |
| 20260506015609 | 9 | 263 | 3.2 | 6.4 | 0.00 | 0.08 | 0.08 | 54 | 1008.1 |
| 20260506015450 | 9 | 271 | 3.2 | 6.4 | 0.00 | 0.08 | 0.08 | 54 | 1008.2 |
| 20260506015332 | 9 | 253 | 1.6 | 8.0 | 0.00 | 0.08 | 0.08 | 54 | 1008.4 |
| 20260506015211 | 9 | 262 | 1.6 | 8.0 | 0.00 | 0.08 | 0.08 | 54 | 1008.3 |
| 20260506015048 | 10 | 269 | 1.6 | 8.0 | 0.00 | 0.08 | 0.08 | 54 | 1008.2 |
| 20260506014931 | 10 | 274 | 1.6 | 9.7 | 0.00 | 0.08 | 0.08 | 54 | 1008.1 |
| 20260506014749 | 10 | 284 | 4.8 | 9.7 | 0.00 | 0.08 | 0.08 | 54 | 1008.1 |
| 20260506014629 | 10 | 271 | 3.2 | 9.7 | 0.00 | 0.08 | 0.08 | 54 | 1008.1 |
| 20260506014504 | 10 | 258 | 0.0 | 9.7 | 0.00 | 0.08 | 0.08 | 54 | 1008.1 |
| 20260506014342 | 10 | 258 | 3.2 | 9.7 | 0.00 | 0.08 | 0.08 | 54 | 1008.0 |
| 20260506014224 | 10 | 250 | 4.8 | 9.7 | 0.00 | 0.08 | 0.08 | 54 | 1008.1 |
| 20260506014103 | 10 | 299 | 4.8 | 8.0 | 0.00 | 0.08 | 0.08 | 53 | 1008.0 |
| 20260506013919 | 10 | 279 | 3.2 | 8.0 | 0.00 | 0.08 | 0.08 | 53 | 1008.0 |
| 20260506013756 | 10 | 269 | 4.8 | 8.0 | 0.00 | 0.08 | 0.08 | 53 | 1008.0 |
| 20260506013639 | 10 | 265 | 1.6 | 9.7 | 0.00 | 0.08 | 0.08 | 53 | 1007.9 |
| 20260506013456 | 10 | 286 | 1.6 | 9.7 | 0.00 | 0.08 | 0.08 | 53 | 1007.9 |
| 20260506013335 | 10 | 285 | 3.2 | 9.7 | 0.00 | 0.08 | 0.08 | 53 | 1007.8 |
| 20260506013213 | 10 | 281 | 1.6 | 9.7 | 0.00 | 0.08 | 0.08 | 53 | 1007.8 |
| 20260506013037 | 10 | 267 | 3.2 | 9.7 | 0.00 | 0.08 | 0.08 | 53 | 1007.8 |
| 20260506012858 | 10 | 286 | 4.8 | 9.7 | 0.00 | 0.08 | 0.08 | 52 | 1007.8 |
| 20260506012736 | 10 | 281 | 4.8 | 8.0 | 0.00 | 0.08 | 0.08 | 52 | 1007.8 |
| 20260506012414 | 10 | 281 | 1.6 | 6.4 | 0.00 | 0.08 | 0.08 | 52 | 1007.7 |
| 20260506012251 | 10 | 277 | 3.2 | 8.0 | 0.00 | 0.08 | 0.08 | 52 | 1007.7 |
| 20260506012129 | 10 | 288 | 3.2 | 9.7 | 0.00 | 0.08 | 0.08 | 52 | 1007.7 |
| 20260506012006 | 10 | 283 | 3.2 | 9.7 | 0.00 | 0.08 | 0.08 | 52 | 1007.6 |
| 20260506011843 | 10 | 275 | 1.6 | 9.7 | 0.00 | 0.08 | 0.08 | 52 | 1007.6 |
| 20260506011703 | 10 | 322 | 3.2 | 9.7 | 0.00 | 0.08 | 0.08 | 52 | 1007.7 |
| 20260506011544 | 10 | 290 | 4.8 | 9.7 | 0.00 | 0.08 | 0.08 | 52 | 1007.6 |
| 20260506011423 | 10 | 303 | 6.4 | 9.7 | 0.00 | 0.08 | 0.08 | 52 | 1007.6 |
| 20260506011241 | 10 | 279 | 6.4 | 9.7 | 0.00 | 0.08 | 0.08 | 52 | 1007.5 |
| 20260506011123 | 10 | 277 | 4.8 | 9.7 | 0.00 | 0.08 | 0.08 | 52 | 1007.6 |
| 20260506010941 | 10 | 251 | 1.6 | 9.7 | 0.00 | 0.08 | 0.08 | 52 | 1007.6 |
| 20260506010819 | 10 | 266 | 3.2 | 9.7 | 0.00 | 0.08 | 0.08 | 52 | 1007.6 |
| 20260506010657 | 10 | 271 | 3.2 | 9.7 | 0.00 | 0.08 | 0.08 | 52 | 1007.6 |
| 20260506010537 | 10 | 270 | 3.2 | 11.3 | 0.00 | 0.08 | 0.08 | 51 | 1007.6 |
| 20260506010353 | 10 | 248 | 4.8 | 11.3 | 0.00 | 0.08 | 0.08 | 51 | 1007.6 |
| 20260506010231 | 10 | 273 | 6.4 | 11.3 | 0.00 | 0.08 | 0.08 | 51 | 1007.6 |
| 20260506010106 | 10 | 247 | 3.2 | 11.3 | 0.00 | 0.08 | 0.08 | 51 | 1007.6 |
| 20260506005945 | 10 | 248 | 6.4 | 11.3 | 0.00 | 0.08 | 0.08 | 51 | 1007.6 |
| 20260506005826 | 10 | 273 | 6.4 | 12.9 | 0.00 | 0.08 | 0.08 | 51 | 1007.6 |
| 20260506005703 | 10 | 263 | 4.8 | 12.9 | 0.00 | 0.08 | 0.08 | 51 | 1007.6 |
| 20260506005542 | 10 | 290 | 4.8 | 12.9 | 0.00 | 0.08 | 0.08 | 51 | 1007.6 |
| 20260506005422 | 10 | 289 | 3.2 | 12.9 | 0.00 | 0.08 | 0.08 | 51 | 1007.7 |
| 20260506005306 | 10 | 274 | 3.2 | 12.9 | 0.00 | 0.08 | 0.08 | 51 | 1007.7 |
| 20260506005142 | 10 | 249 | 6.4 | 12.9 | 0.00 | 0.08 | 0.08 | 51 | 1007.6 |
| 20260506005019 | 10 | 280 | 4.8 | 11.3 | 0.00 | 0.08 | 0.08 | 51 | 1007.7 |
| 20260506004858 | 10 | 272 | 3.2 | 9.7 | 0.00 | 0.08 | 0.08 | 51 | 1007.6 |
| 20260506004720 | 10 | 284 | 4.8 | 9.7 | 0.00 | 0.08 | 0.08 | 51 | 1007.7 |
| 20260506004540 | 10 | 286 | 4.8 | 9.7 | 0.00 | 0.08 | 0.08 | 50 | 1007.7 |
| 20260506004419 | 10 | 223 | 4.8 | 9.7 | 0.00 | 0.08 | 0.08 | 50 | 1007.7 |
| 20260506004257 | 10 | 257 | 4.8 | 11.3 | 0.00 | 0.08 | 0.08 | 51 | 1007.7 |
| 20260506004137 | 10 | 269 | 4.8 | 11.3 | 0.00 | 0.08 | 0.08 | 51 | 1007.7 |
| 20260506004018 | 10 | 293 | 6.4 | 11.3 | 0.00 | 0.08 | 0.08 | 50 | 1007.7 |
| 20260506003834 | 10 | 254 | 3.2 | 11.3 | 0.00 | 0.08 | 0.08 | 50 | 1007.7 |
| 20260506003712 | 10 | 288 | 6.4 | 11.3 | 0.00 | 0.08 | 0.08 | 50 | 1007.7 |
| 20260506003553 | 10 | 271 | 6.4 | 11.3 | 0.00 | 0.08 | 0.08 | 50 | 1007.7 |
| 20260506003435 | 10 | 277 | 4.8 | 11.3 | 0.00 | 0.08 | 0.08 | 50 | 1007.7 |
| 20260506003251 | 10 | 265 | 3.2 | 11.3 | 0.00 | 0.08 | 0.08 | 50 | 1007.7 |
| 20260506003128 | 10 | 277 | 3.2 | 11.3 | 0.00 | 0.08 | 0.08 | 50 | 1007.7 |
| 20260506003005 | 10 | 280 | 6.4 | 12.9 | 0.00 | 0.08 | 0.08 | 50 | 1007.7 |
| 20260506002826 | 10 | 278 | 6.4 | 12.9 | 0.00 | 0.08 | 0.08 | 50 | 1007.7 |
| 20260506002703 | 10 | 273 | 4.8 | 12.9 | 0.00 | 0.08 | 0.08 | 50 | 1007.7 |
| 20260506002541 | 10 | 277 | 4.8 | 12.9 | 0.00 | 0.08 | 0.08 | 50 | 1007.7 |
| 20260506002417 | 10 | 253 | 3.2 | 12.9 | 0.00 | 0.08 | 0.08 | 49 | 1007.7 |
| 20260506002233 | 10 | 252 | 6.4 | 12.9 | 0.00 | 0.08 | 0.08 | 49 | 1007.7 |
| 20260506002114 | 10 | 304 | 6.4 | 12.9 | 0.00 | 0.08 | 0.08 | 49 | 1007.7 |
| 20260506001951 | 10 | 244 | 4.8 | 12.9 | 0.00 | 0.08 | 0.08 | 49 | 1007.7 |
| 20260506001829 | 10 | 288 | 4.8 | 12.9 | 0.00 | 0.08 | 0.08 | 49 | 1007.8 |
| 20260506001707 | 10 | 259 | 6.4 | 12.9 | 0.00 | 0.08 | 0.08 | 49 | 1007.8 |
| 20260506001531 | 10 | 251 | 8.0 | 12.9 | 0.00 | 0.08 | 0.08 | 49 | 1007.8 |
| 20260506001409 | 10 | 283 | 4.8 | 16.1 | 0.00 | 0.08 | 0.08 | 49 | 1007.8 |
| 20260506001246 | 10 | 268 | 6.4 | 16.1 | 0.00 | 0.08 | 0.08 | 49 | 1007.7 |
| 20260506001124 | 10 | 313 | 6.4 | 16.1 | 0.00 | 0.08 | 0.08 | 49 | 1007.7 |
| 20260506000945 | 10 | 250 | 6.4 | 16.1 | 0.00 | 0.08 | 0.08 | 49 | 1007.7 |
| 20260506000823 | 10 | 286 | 8.0 | 16.1 | 0.00 | 0.08 | 0.08 | 48 | 1007.7 |
| 20260506000703 | 10 | 273 | 9.7 | 16.1 | 0.00 | 0.08 | 0.08 | 48 | 1007.7 |
| 20260506000539 | 10 | 298 | 9.7 | 14.5 | 0.00 | 0.08 | 0.08 | 48 | 1007.7 |
| 20260506000423 | 10 | 281 | 6.4 | 14.5 | 0.00 | 0.08 | 0.08 | 48 | 1007.6 |
| 20260506000259 | 10 | 265 | 4.8 | 11.3 | 0.00 | 0.08 | 0.08 | 48 | 1007.7 |
| 20260506000141 | 10 | 265 | 6.4 | 11.3 | 0.00 | 0.08 | 0.08 | 48 | 1007.7 |
| 20260506000022 | 10 | 272 | 3.2 | 12.9 | 0.00 | 0.08 | 0.08 | 48 | 1007.7 |
| 20260505235901 | 10 | 284 | 4.8 | 12.9 | 0.00 | 0.08 | 0.08 | 48 | 1007.6 |
| 20260505235722 | 10 | 295 | 4.8 | 12.9 | 0.00 | 0.08 | 0.08 | 48 | 1007.7 |
| 20260505235600 | 10 | 280 | 4.8 | 12.9 | 0.00 | 0.08 | 0.08 | 48 | 1007.7 |